tititudorancea.com
Ararat Weather - Ararat,Victoria,Australia
 
Daily Summary for September 01, 2014 Units:  Metric    English   Both
« Previous Day
Next Day »
Daily Weekly Monthly Yearly Custom
  Current: High: Low: Average:
Temperature: 7.1 °C 14.7 °C 6.9 °C 10.8 °C
Dew Point: 6.9 °C 12.1 °C 3.6 °C 7.6 °C
Humidity: 99% 99% 48% 83%
Wind Speed: 2.6km/h 24.5km/h 0km/h 4.5km/h
Wind Gust: 12.2km/h 37.8km/h - -
WindWNW - - West
Pressure: 1013.4 hPa 1013.4 hPa 1006.3 hPa -
Precipitation: 9.91 mm      
Historical Graphs
 
 
Ararat weather Find more about Weather in Ararat, AU


 




 


Tabular Data for September 01, 2014
Time Temperature Dew Point Pressure Wind Wind Speed Wind Gust Humidity Rainfall Rate (Hourly)
00:01 13.1 °C 4.7 °C 1008.4 hPa North 7.2 km/h 11.1 km/h 57% 0 mm
00:02 13.1 °C 4.8 °C 1008.4 hPa North 2.6 km/h 11.1 km/h 57% 0 mm
00:05 13.2 °C 4.1 °C 1008.7 hPa NNE 9.7 km/h 15.8 km/h 54% 0 mm
00:06 13.3 °C 4.2 °C 1008.7 hPa NNE 5 km/h 15.8 km/h 54% 0 mm
00:07 13.3 °C 4.2 °C 1008.7 hPa NNE 5 km/h 15.8 km/h 54% 0 mm
00:10 13.6 °C 4.5 °C 1008.4 hPa North 1.1 km/h 15.8 km/h 54% 0 mm
00:12 13.6 °C 4.5 °C 1008.4 hPa North 2.6 km/h 15.8 km/h 54% 0 mm
00:13 13.6 °C 4.5 °C 1008.4 hPa North 1.1 km/h 15.8 km/h 54% 0 mm
00:16 13.7 °C 4.3 °C 1008.4 hPa NNW 5 km/h 8.7 km/h 53% 0 mm
00:17 13.7 °C 4.6 °C 1008.4 hPa NNW 3.5 km/h 8.7 km/h 54% 0 mm
00:18 13.7 °C 4.3 °C 1008.4 hPa NNW 5 km/h 8.7 km/h 53% 0 mm
00:19 13.8 °C 4.4 °C 1008.4 hPa NNW 2.6 km/h 8.7 km/h 53% 0 mm
00:21 13.8 °C 4.4 °C 1008.4 hPa NNW 5 km/h 11.1 km/h 53% 0 mm
00:22 13.8 °C 4.4 °C 1008.4 hPa North 1.1 km/h 11.1 km/h 53% 0 mm
00:23 13.8 °C 4.4 °C 1008.4 hPa North 1.1 km/h 11.1 km/h 53% 0 mm
00:24 13.8 °C 4.4 °C 1008.4 hPa North 1.1 km/h 11.1 km/h 53% 0 mm
00:27 13.8 °C 4.4 °C 1008.4 hPa NNW 3.5 km/h 11.1 km/h 53% 0 mm
00:28 13.9 °C 4.5 °C 1008.4 hPa NNW 3.5 km/h 11.1 km/h 53% 0 mm
00:29 13.8 °C 4.4 °C 1008 hPa North 5 km/h 11.1 km/h 53% 0 mm
00:32 13.9 °C 4.5 °C 1008 hPa NNW 1.1 km/h 9.7 km/h 53% 0 mm
00:33 13.9 °C 4.5 °C 1008 hPa NNW 8.7 km/h 12.2 km/h 53% 0 mm
00:34 13.9 °C 4.5 °C 1008 hPa NNW 2.6 km/h 12.2 km/h 53% 0 mm
00:35 13.9 °C 4.2 °C 1008 hPa NNW 2.6 km/h 12.2 km/h 52% 0 mm
00:37 14 °C 4.3 °C 1008 hPa North 11.1 km/h 18.3 km/h 52% 0 mm
00:38 14 °C 4.6 °C 1008 hPa North 5 km/h 18.3 km/h 53% 0 mm
00:40 14.1 °C 4.7 °C 1007.7 hPa North 12.2 km/h 23.3 km/h 53% 0 mm
00:41 14.1 °C 4.7 °C 1007.7 hPa North 11.1 km/h 23.3 km/h 53% 0 mm
00:43 14.2 °C 4.5 °C 1007.3 hPa North 8.7 km/h 23.3 km/h 52% 0 mm
00:44 14.2 °C 4.2 °C 1007.7 hPa NNE 6.1 km/h 23.3 km/h 51% 0 mm
00:45 14.3 °C 4.3 °C 1007.3 hPa North 13.4 km/h 23.3 km/h 51% 0 mm
00:48 14.4 °C 4.1 °C 1007.7 hPa NNE 7.2 km/h 23.3 km/h 50% 0 mm
00:49 14.5 °C 3.9 °C 1008 hPa North 7.2 km/h 23.3 km/h 49% 0 mm
00:50 14.6 °C 4 °C 1008 hPa North 7.2 km/h 23.3 km/h 49% 0 mm
00:51 14.6 °C 4 °C 1008 hPa North 7.2 km/h 23.3 km/h 49% 0 mm
00:53 14.7 °C 4.1 °C 1007.7 hPa North 6.1 km/h 20.9 km/h 49% 0 mm
00:55 14.7 °C 4.1 °C 1007.7 hPa North 6.1 km/h 17.2 km/h 49% 0 mm
00:56 14.7 °C 3.8 °C 1007.7 hPa North 8.7 km/h 19.5 km/h 48% 0 mm
00:57 14.7 °C 3.8 °C 1007.7 hPa North 12.2 km/h 20.9 km/h 48% 0 mm
01:00 14.7 °C 4.1 °C 1007.7 hPa North 5 km/h 20.9 km/h 49% 0 mm
01:01 14.7 °C 4.1 °C 1007.7 hPa North 7.2 km/h 20.9 km/h 49% 0 mm
01:02 14.7 °C 4.1 °C 1007.3 hPa NNW 8.7 km/h 20.9 km/h 49% 0 mm
01:05 14.6 °C 4 °C 1007.7 hPa NNW 6.1 km/h 20.9 km/h 49% 0 mm
01:06 14.5 °C 3.9 °C 1007.7 hPa NW 9.7 km/h 20.9 km/h 49% 0 mm
01:07 14.5 °C 3.9 °C 1007.7 hPa NW 8.7 km/h 15.8 km/h 49% 0 mm
01:08 14.5 °C 4.2 °C 1007.7 hPa NNW 8.7 km/h 17.2 km/h 50% 0 mm
01:10 14.4 °C 3.8 °C 1007.3 hPa NNW 5 km/h 17.2 km/h 49% 0 mm
01:11 14.4 °C 3.8 °C 1007.3 hPa NNW 7.2 km/h 17.2 km/h 49% 0 mm
01:12 14.4 °C 3.8 °C 1007.3 hPa NNW 7.2 km/h 17.2 km/h 49% 0 mm
01:14 14.4 °C 3.8 °C 1007.3 hPa NNW 8.7 km/h 18.3 km/h 49% 0 mm
01:15 14.4 °C 3.8 °C 1007.3 hPa North 5 km/h 18.3 km/h 49% 0 mm
01:17 14.4 °C 3.8 °C 1007.3 hPa North 3.5 km/h 18.3 km/h 49% 0 mm
01:18 14.4 °C 3.8 °C 1007.3 hPa NNW 3.5 km/h 18.3 km/h 49% 0 mm
01:20 14.4 °C 3.8 °C 1007.3 hPa NNW 7.2 km/h 18.3 km/h 49% 0 mm
01:22 14.3 °C 3.7 °C 1007.3 hPa NNW 7.2 km/h 18.3 km/h 49% 0 mm
01:23 14.3 °C 3.7 °C 1007.3 hPa NNW 5 km/h 14.8 km/h 49% 0 mm
01:25 14.2 °C 3.7 °C 1007.3 hPa NNW 8.7 km/h 17.2 km/h 49% 0 mm
01:27 14.3 °C 3.7 °C 1007 hPa NNW 5 km/h 17.2 km/h 49% 0 mm
01:28 14.3 °C 3.7 °C 1007 hPa NNW 5 km/h 17.2 km/h 49% 0 mm
01:31 14.1 °C 3.6 °C 1007.3 hPa NNW 8.7 km/h 17.2 km/h 49% 0 mm
01:32 14.1 °C 3.6 °C 1007 hPa NNW 2.6 km/h 17.2 km/h 49% 0 mm
01:33 14.2 °C 3.7 °C 1007 hPa NNW 2.6 km/h 17.2 km/h 49% 0 mm
01:36 14.1 °C 3.8 °C 1007.3 hPa NNW 3.5 km/h 14.8 km/h 50% 0 mm
01:38 14.1 °C 3.8 °C 1007.3 hPa NNW 2.6 km/h 14.8 km/h 50% 0 mm
01:39 14.1 °C 3.8 °C 1007 hPa NNW 2.6 km/h 14.8 km/h 50% 0 mm
01:41 14 °C 3.8 °C 1007 hPa NNW 2.6 km/h 11.1 km/h 50% 0 mm
01:43 14.1 °C 3.8 °C 1007 hPa NW 6.1 km/h 11.1 km/h 50% 0 mm
01:44 14.1 °C 3.8 °C 1007 hPa NW 6.1 km/h 11.1 km/h 50% 0 mm
01:47 14 °C 3.8 °C 1006.7 hPa NW 5 km/h 11.1 km/h 50% 0 mm
01:49 14.1 °C 3.8 °C 1007 hPa NW 3.5 km/h 12.2 km/h 50% 0 mm
01:50 14.1 °C 3.8 °C 1007 hPa NW 3.5 km/h 12.2 km/h 50% 0 mm
01:52 14.1 °C 3.8 °C 1006.7 hPa NW 2.6 km/h 12.2 km/h 50% 0 mm
01:54 14.1 °C 3.8 °C 1006.7 hPa NNW 5 km/h 12.2 km/h 50% 0 mm
01:55 14.1 °C 3.8 °C 1006.7 hPa NNW 2.6 km/h 12.2 km/h 50% 0 mm
01:57 14.1 °C 3.8 °C 1006.7 hPa NNW 2.6 km/h 12.2 km/h 50% 0 mm
01:59 14.1 °C 3.8 °C 1007 hPa North 2.6 km/h 11.1 km/h 50% 0 mm
02:00 14.1 °C 3.8 °C 1007 hPa North 5 km/h 11.1 km/h 50% 0 mm
02:03 14.1 °C 3.8 °C 1007 hPa NNW 3.5 km/h 9.7 km/h 50% 0 mm
02:05 14.1 °C 3.8 °C 1006.7 hPa NNW 2.6 km/h 9.7 km/h 50% 0 mm
02:06 14.1 °C 3.8 °C 1006.7 hPa NNW 2.6 km/h 9.7 km/h 50% 0 mm
02:08 14.1 °C 3.8 °C 1006.7 hPa NNW 5 km/h 12.2 km/h 50% 0 mm
02:09 14.1 °C 3.8 °C 1006.7 hPa NNW 5 km/h 12.2 km/h 50% 0 mm
02:10 14.2 °C 3.9 °C 1007 hPa NNW 3.5 km/h 12.2 km/h 50% 0 mm
02:11 14.2 °C 3.9 °C 1007 hPa NNW 3.5 km/h 12.2 km/h 50% 0 mm
02:13 14.2 °C 3.9 °C 1006.7 hPa NNW 6.1 km/h 12.2 km/h 50% 0 mm
02:15 14.2 °C 3.9 °C 1006.7 hPa NNW 5 km/h 12.2 km/h 50% 0 mm
02:16 14.2 °C 3.7 °C 1006.7 hPa NNW 3.5 km/h 12.2 km/h 49% 0 mm
02:17 14.2 °C 3.7 °C 1006.7 hPa NNW 6.1 km/h 14.8 km/h 49% 0 mm
02:18 14.2 °C 3.9 °C 1006.7 hPa NNW 9.7 km/h 19.5 km/h 50% 0 mm
02:21 14.3 °C 3.7 °C 1006.7 hPa NNW 5 km/h 19.5 km/h 49% 0 mm
02:22 14.3 °C 3.7 °C 1006.7 hPa NNW 5 km/h 19.5 km/h 49% 0 mm
02:24 14.3 °C 3.7 °C 1006.7 hPa NNW 6.1 km/h 19.5 km/h 49% 0 mm
02:26 14.4 °C 3.8 °C 1006.7 hPa NNW 3.5 km/h 19.5 km/h 49% 0 mm
02:28 14.4 °C 3.8 °C 1006.7 hPa NNW 7.2 km/h 19.5 km/h 49% 0 mm
02:29 14.4 °C 3.8 °C 1006.7 hPa NNW 3.5 km/h 13.4 km/h 49% 0 mm
02:30 14.4 °C 3.6 °C 1006.7 hPa NNW 6.1 km/h 15.8 km/h 48% 0 mm
02:32 14.4 °C 3.8 °C 1006.7 hPa NNW 3.5 km/h 15.8 km/h 49% 0 mm
02:34 14.4 °C 3.8 °C 1006.7 hPa NNW 3.5 km/h 15.8 km/h 49% 0 mm
02:35 14.4 °C 3.8 °C 1006.7 hPa NNW 2.6 km/h 15.8 km/h 49% 0 mm
02:37 14.4 °C 3.8 °C 1006.7 hPa NNW 5 km/h 15.8 km/h 49% 0 mm
02:38 14.4 °C 3.8 °C 1006.7 hPa NNW 5 km/h 15.8 km/h 49% 0 mm
02:39 14.4 °C 3.8 °C 1006.7 hPa NNW 2.6 km/h 15.8 km/h 49% 0 mm
02:40 14.4 °C 3.8 °C 1006.7 hPa NNW 2.6 km/h 15.8 km/h 49% 0 mm
02:42 14.4 °C 3.8 °C 1006.7 hPa NNW 2.6 km/h 13.4 km/h 49% 0 mm
02:43 14.4 °C 4.1 °C 1007 hPa NNW 2.6 km/h 13.4 km/h 50% 0 mm
02:44 14.3 °C 4.1 °C 1007 hPa NNW 3.5 km/h 12.2 km/h 50% 0 mm
02:45 14.3 °C 4.1 °C 1006.7 hPa NNW 3.5 km/h 12.2 km/h 50% 0 mm
02:46 14.3 °C 4.1 °C 1006.7 hPa NNW 5 km/h 12.2 km/h 50% 0 mm
02:47 14.2 °C 3.9 °C 1007 hPa NNW 5 km/h 12.2 km/h 50% 0 mm
02:49 14.2 °C 3.9 °C 1007.3 hPa NW 7.2 km/h 12.2 km/h 50% 0 mm
02:50 14.2 °C 3.9 °C 1007.3 hPa NW 7.2 km/h 12.2 km/h 50% 0 mm
02:51 14.2 °C 3.9 °C 1007.3 hPa NW 7.2 km/h 13.4 km/h 50% 0 mm
02:52 14.2 °C 3.9 °C 1007.3 hPa WNW 6.1 km/h 13.4 km/h 50% 0 mm
02:54 14.2 °C 3.9 °C 1007.3 hPa WNW 8.7 km/h 13.4 km/h 50% 0 mm
02:55 14.2 °C 3.7 °C 1007.3 hPa NW 8.7 km/h 14.8 km/h 49% 0 mm
02:56 14.2 °C 3.7 °C 1007.3 hPa NW 7.2 km/h 14.8 km/h 49% 0 mm
02:57 14.2 °C 3.7 °C 1007.3 hPa NW 7.2 km/h 14.8 km/h 49% 0 mm
02:58 14.2 °C 3.7 °C 1007.3 hPa NW 7.2 km/h 14.8 km/h 49% 0 mm
03:00 14.2 °C 3.7 °C 1007 hPa NW 8.7 km/h 18.3 km/h 49% 0 mm
03:01 14.2 °C 3.7 °C 1007.3 hPa NW 6.1 km/h 18.3 km/h 49% 0 mm
03:02 14.2 °C 3.7 °C 1007.3 hPa NNW 7.2 km/h 18.3 km/h 49% 0 mm
03:03 14.2 °C 3.7 °C 1007.3 hPa NW 6.1 km/h 18.3 km/h 49% 0 mm
03:05 14.2 °C 3.7 °C 1007.3 hPa NNW 7.2 km/h 18.3 km/h 49% 0 mm
03:06 14.2 °C 3.7 °C 1007.3 hPa NNW 9.7 km/h 18.3 km/h 49% 0 mm
03:07 14.2 °C 3.7 °C 1007.3 hPa NNW 6.1 km/h 18.3 km/h 49% 0 mm
03:11 14.2 °C 3.7 °C 1007.3 hPa NNW 8.7 km/h 17.2 km/h 49% 0 mm
03:12 14.2 °C 3.7 °C 1007.3 hPa NNW 8.7 km/h 17.2 km/h 49% 0 mm
03:13 14.2 °C 3.9 °C 1007 hPa NNW 7.2 km/h 17.2 km/h 50% 0 mm
03:17 14.1 °C 3.6 °C 1007.3 hPa NNW 6.1 km/h 17.2 km/h 49% 0 mm
03:18 14.1 °C 3.8 °C 1007.3 hPa NW 9.7 km/h 17.2 km/h 50% 0 mm
03:19 14.1 °C 3.8 °C 1007.3 hPa NNW 11.1 km/h 17.2 km/h 50% 0 mm
03:22 14.1 °C 3.6 °C 1007.3 hPa NNW 8.7 km/h 17.2 km/h 49% 0 mm
03:23 14.1 °C 3.6 °C 1007.3 hPa NNW 11.1 km/h 20.9 km/h 49% 0 mm
03:24 14.1 °C 3.6 °C 1007.3 hPa NNW 9.7 km/h 20.9 km/h 49% 0 mm
03:27 14.1 °C 3.8 °C 1007.3 hPa NNW 3.5 km/h 20.9 km/h 50% 0 mm
03:28 14.1 °C 3.8 °C 1007 hPa NNW 5 km/h 20.9 km/h 50% 0 mm
03:29 14.1 °C 3.8 °C 1007 hPa NNW 5 km/h 20.9 km/h 50% 0 mm
03:30 14.1 °C 3.8 °C 1007.3 hPa NNW 6.1 km/h 20.9 km/h 50% 0 mm
03:31 14 °C 3.8 °C 1007 hPa NNW 5 km/h 20.9 km/h 50% 0 mm
03:33 14 °C 3.8 °C 1007.3 hPa NW 5 km/h 20.9 km/h 50% 0 mm
03:34 14 °C 3.8 °C 1007.3 hPa NW 6.1 km/h 13.4 km/h 50% 0 mm
03:35 14 °C 3.8 °C 1007.3 hPa NNW 2.6 km/h 13.4 km/h 50% 0 mm
03:38 13.9 °C 3.7 °C 1007.3 hPa NNW 6.1 km/h 19.5 km/h 50% 0 mm
03:39 13.9 °C 3.7 °C 1007.3 hPa NNW 6.1 km/h 19.5 km/h 50% 0 mm
03:40 13.9 °C 3.9 °C 1007 hPa NNW 3.5 km/h 19.5 km/h 51% 0 mm
03:41 13.9 °C 3.9 °C 1007 hPa NNW 3.5 km/h 19.5 km/h 51% 0 mm
03:43 13.9 °C 3.7 °C 1007.3 hPa North 8.7 km/h 19.5 km/h 50% 0 mm
03:44 13.9 °C 3.7 °C 1007 hPa North 5 km/h 19.5 km/h 50% 0 mm
03:45 13.8 °C 3.6 °C 1007 hPa North 3.5 km/h 19.5 km/h 50% 0 mm
03:46 13.8 °C 3.6 °C 1007 hPa NNW 2.6 km/h 19.5 km/h 50% 0 mm
03:48 13.8 °C 3.8 °C 1007.3 hPa NNW 2.6 km/h 13.4 km/h 51% 0 mm
03:49 13.8 °C 3.8 °C 1007.3 hPa NNW 2.6 km/h 13.4 km/h 51% 0 mm
03:50 13.7 °C 3.8 °C 1007 hPa NNW 3.5 km/h 13.4 km/h 51% 0 mm
03:51 13.7 °C 3.8 °C 1007 hPa NNW 3.5 km/h 13.4 km/h 51% 0 mm
03:52 13.7 °C 3.8 °C 1007 hPa NNW 2.6 km/h 13.4 km/h 51% 0 mm
03:54 13.7 °C 4.1 °C 1007.3 hPa NNW 6.1 km/h 11.1 km/h 52% 0 mm
03:55 13.6 °C 3.9 °C 1007 hPa North 7.2 km/h 17.2 km/h 52% 0 mm
03:56 13.6 °C 3.7 °C 1007 hPa North 3.5 km/h 17.2 km/h 51% 0 mm
03:58 13.6 °C 3.9 °C 1007.3 hPa North 6.1 km/h 17.2 km/h 52% 0 mm
03:59 13.6 °C 3.9 °C 1007.3 hPa North 5 km/h 17.2 km/h 52% 0 mm
04:00 13.6 °C 3.9 °C 1007.3 hPa North 5 km/h 17.2 km/h 52% 0 mm
04:01 13.5 °C 3.9 °C 1007 hPa North 6.1 km/h 17.2 km/h 52% 0 mm
04:02 13.5 °C 3.9 °C 1007 hPa North 5 km/h 17.2 km/h 52% 0 mm
04:04 13.5 °C 3.9 °C 1007 hPa North 2.6 km/h 17.2 km/h 52% 0 mm
04:06 13.4 °C 3.8 °C 1007 hPa North 5 km/h 13.4 km/h 52% 0 mm
04:07 13.5 °C 3.9 °C 1007 hPa North 6.1 km/h 13.4 km/h 52% 0 mm
04:08 13.5 °C 3.9 °C 1007 hPa Calm   12.2 km/h 52% 0 mm
04:10 13.4 °C 3.8 °C 1006.7 hPa NNW 5 km/h 12.2 km/h 52% 0 mm
04:11 13.4 °C 3.8 °C 1006.7 hPa NNW 1.1 km/h 12.2 km/h 52% 0 mm
04:12 13.3 °C 3.9 °C 1006.7 hPa NW 2.6 km/h 12.2 km/h 53% 0 mm
04:13 13.4 °C 4.1 °C 1007 hPa NW 2.6 km/h 12.2 km/h 53% 0 mm
04:15 13.3 °C 3.9 °C 1007 hPa NW 3.5 km/h 12.2 km/h 53% 0 mm
04:16 13.3 °C 3.9 °C 1007 hPa NW 3.5 km/h 12.2 km/h 53% 0 mm
04:17 13.3 °C 3.9 °C 1007.3 hPa NW 3.5 km/h 11.1 km/h 53% 0 mm
04:18 13.3 °C 3.9 °C 1007.3 hPa NW 3.5 km/h 8.7 km/h 53% 0 mm
04:19 13.2 °C 3.8 °C 1007 hPa NW 2.6 km/h 8.7 km/h 53% 0 mm
04:20 13.2 °C 4.1 °C 1007 hPa NW 2.6 km/h 7.2 km/h 54% 0 mm
04:21 13.2 °C 4.1 °C 1006.7 hPa NNW 1.1 km/h 7.2 km/h 54% 0 mm
04:22 13.1 °C 4.1 °C 1007 hPa Calm   7.2 km/h 54% 0 mm
04:23 13.1 °C 4.1 °C 1007 hPa Calm   7.2 km/h 54% 0 mm
04:25 13.1 °C 4.1 °C 1007 hPa NNW 2.6 km/h 7.2 km/h 54% 0 mm
04:26 13.1 °C 4.3 °C 1007 hPa NNW 6.1 km/h 11.1 km/h 55% 0 mm
04:27 13.1 °C 4.1 °C 1007 hPa NNW 1.1 km/h 11.1 km/h 54% 0 mm
04:28 13.1 °C 4.1 °C 1007 hPa NNW 5 km/h 11.1 km/h 54% 0 mm
04:30 13.1 °C 4.1 °C 1006.7 hPa North 2.6 km/h 11.1 km/h 54% 0 mm
04:31 13.1 °C 4.1 °C 1007 hPa North 2.6 km/h 11.1 km/h 54% 0 mm
04:32 13.1 °C 4.1 °C 1006.7 hPa North 5 km/h 11.1 km/h 54% 0 mm
04:33 13.1 °C 3.9 °C 1006.7 hPa North 1.1 km/h 11.1 km/h 54% 0 mm
04:34 13.1 °C 3.9 °C 1006.7 hPa North 1.1 km/h 11.1 km/h 54% 0 mm
04:36 13.1 °C 3.9 °C 1006.7 hPa NNW 2.6 km/h 11.1 km/h 54% 0 mm
04:38 13.1 °C 3.9 °C 1007 hPa NW 2.6 km/h 8.7 km/h 54% 0 mm
04:39 13.1 °C 3.9 °C 1007 hPa NW 2.6 km/h 8.7 km/h 54% 0 mm
04:42 12.9 °C 4.1 °C 1007.3 hPa NW 3.5 km/h 8.7 km/h 55% 0 mm
04:43 12.9 °C 4.4 °C 1007.3 hPa NW 3.5 km/h 8.7 km/h 56% 0 mm
04:44 12.9 °C 4.4 °C 1007.3 hPa NW 3.5 km/h 8.7 km/h 56% 0 mm
04:45 12.9 °C 4.4 °C 1007.3 hPa NW 2.6 km/h 8.7 km/h 56% 0 mm
04:47 12.8 °C 4.3 °C 1007.3 hPa NW 3.5 km/h 8.7 km/h 56% 0 mm
04:48 12.8 °C 4.3 °C 1007.3 hPa NW 3.5 km/h 8.7 km/h 56% 0 mm
04:49 12.8 °C 4.3 °C 1007.3 hPa NW 2.6 km/h 8.7 km/h 56% 0 mm
04:50 12.7 °C 4.2 °C 1007.3 hPa NW 2.6 km/h 8.7 km/h 56% 0 mm
04:53 12.7 °C 4.2 °C 1007 hPa NNW 2.6 km/h 8.7 km/h 56% 0 mm
04:54 12.7 °C 4.1 °C 1007.3 hPa NNW 3.5 km/h 8.7 km/h 56% 0 mm
04:55 12.7 °C 4.1 °C 1007.3 hPa NNW 3.5 km/h 8.7 km/h 56% 0 mm
04:56 12.7 °C 4.2 °C 1007.3 hPa NNW 3.5 km/h 8.7 km/h 56% 0 mm
04:58 12.7 °C 4.2 °C 1007.3 hPa NNW 3.5 km/h 11.1 km/h 56% 0 mm
04:59 12.7 °C 4.1 °C 1007.3 hPa NNW 5 km/h 12.2 km/h 56% 0 mm
05:00 12.7 °C 4.1 °C 1007.3 hPa NNW 3.5 km/h 12.2 km/h 56% 0 mm
05:01 12.7 °C 4.1 °C 1007 hPa NNW 3.5 km/h 12.2 km/h 56% 0 mm
05:04 12.7 °C 4.1 °C 1007 hPa NNW 1.1 km/h 12.2 km/h 56% 0 mm
05:05 12.7 °C 4.1 °C 1006.7 hPa Calm   12.2 km/h 56% 0 mm
05:06 12.7 °C 4.1 °C 1006.7 hPa Calm   12.2 km/h 56% 0 mm
05:07 12.7 °C 4.1 °C 1006.7 hPa NNW 1.1 km/h 12.2 km/h 56% 0 mm
05:09 12.7 °C 4.1 °C 1006.3 hPa NNW 3.5 km/h 9.7 km/h 56% 0 mm
05:10 12.7 °C 4.3 °C 1006.3 hPa North 3.5 km/h 9.7 km/h 57% 0 mm
05:11 12.7 °C 4.6 °C 1006.7 hPa NNE 5 km/h 7.2 km/h 58% 0 mm
05:12 12.7 °C 4.6 °C 1006.7 hPa NE 5 km/h 7.2 km/h 58% 0 mm
05:15 12.7 °C 4.6 °C 1006.7 hPa ENE 2.6 km/h 7.2 km/h 58% 0 mm
05:16 12.7 °C 4.3 °C 1007 hPa NE 3.5 km/h 7.2 km/h 57% 0 mm
05:17 12.7 °C 4.6 °C 1007.3 hPa NE 3.5 km/h 7.2 km/h 58% 0 mm
05:18 12.7 °C 4.6 °C 1007.3 hPa NNE 3.5 km/h 7.2 km/h 58% 0 mm
05:19 12.6 °C 4.5 °C 1007.3 hPa NNE 2.6 km/h 7.2 km/h 58% 0 mm
05:20 12.6 °C 4.5 °C 1007.3 hPa North 1.1 km/h 7.2 km/h 58% 0 mm
05:21 12.6 °C 4.5 °C 1007.3 hPa NNW 3.5 km/h 7.2 km/h 58% 0 mm
05:22 12.4 °C 4.4 °C 1007.3 hPa NW 3.5 km/h 7.2 km/h 58% 0 mm
05:23 12.4 °C 4.4 °C 1007.3 hPa NW 2.6 km/h 7.2 km/h 58% 0 mm
05:24 12.4 °C 4.4 °C 1007.3 hPa NW 1.1 km/h 7.2 km/h 58% 0 mm
05:26 12.3 °C 4.6 °C 1007.7 hPa NW 5 km/h 8.7 km/h 59% 0 mm
05:27 12.3 °C 4.6 °C 1007.7 hPa NW 5 km/h 8.7 km/h 59% 0 mm
05:28 12.3 °C 4.6 °C 1007.7 hPa NNW 3.5 km/h 8.7 km/h 59% 0 mm
05:29 12.3 °C 4.6 °C 1007.7 hPa NNW 3.5 km/h 8.7 km/h 59% 0 mm
05:32 12.3 °C 4.6 °C 1007.3 hPa North 3.5 km/h 12.2 km/h 59% 0 mm
05:34 12.3 °C 4.8 °C 1007.3 hPa North 5 km/h 12.2 km/h 60% 0 mm
05:37 12.2 °C 4.7 °C 1007.7 hPa North 3.5 km/h 12.2 km/h 60% 0 mm
05:38 12.3 °C 5.1 °C 1007.7 hPa North 2.6 km/h 12.2 km/h 61% 0 mm
05:39 12.2 °C 4.7 °C 1007.7 hPa North 2.6 km/h 12.2 km/h 60% 0 mm
05:40 12.3 °C 4.8 °C 1007.3 hPa North 1.1 km/h 12.2 km/h 60% 0 mm
05:43 12.3 °C 5.1 °C 1007.3 hPa North 3.5 km/h 8.7 km/h 61% 0 mm
05:45 12.2 °C 5.2 °C 1007.7 hPa NNW 2.6 km/h 8.7 km/h 62% 0 mm
05:46 12.2 °C 5.2 °C 1007.3 hPa Calm   8.7 km/h 62% 0 mm
05:48 12.2 °C 5.3 °C 1007.3 hPa NNW 2.6 km/h 7.2 km/h 63% 0 mm
05:49 12.2 °C 5.3 °C 1007.3 hPa NNW 2.6 km/h 7.2 km/h 63% 0 mm
05:50 12.1 °C 5.2 °C 1007.7 hPa North 2.6 km/h 8.7 km/h 63% 0 mm
05:51 12.1 °C 5.2 °C 1007.7 hPa North 3.5 km/h 8.7 km/h 63% 0 mm
05:52 12.1 °C 5.2 °C 1007.7 hPa North 3.5 km/h 8.7 km/h 63% 0 mm
05:54 12.1 °C 5.4 °C 1007.3 hPa North 1.1 km/h 8.7 km/h 64% 0 mm
05:56 12.1 °C 5.4 °C 1007.3 hPa Calm   8.7 km/h 64% 0 mm
05:57 12.1 °C 5.4 °C 1007.7 hPa NNE 1.1 km/h 8.7 km/h 64% 0 mm
05:59 11.9 °C 5.6 °C 1007.3 hPa North 1.1 km/h 8.7 km/h 65% 0 mm
06:01 11.9 °C 5.6 °C 1007.7 hPa North 2.6 km/h 7.2 km/h 65% 0 mm
06:02 11.9 °C 5.8 °C 1007.3 hPa North 1.1 km/h 7.2 km/h 66% 0 mm
06:04 11.8 °C 5.9 °C 1007.7 hPa NNW 2.6 km/h 6.1 km/h 67% 0 mm
06:05 11.8 °C 5.9 °C 1007.7 hPa NNW 1.1 km/h 6.1 km/h 67% 0 mm
06:06 11.8 °C 5.8 °C 1007.7 hPa NNW 1.1 km/h 6.1 km/h 67% 0 mm
06:07 11.8 °C 6.1 °C 1007.7 hPa NNW 1.1 km/h 6.1 km/h 68% 0 mm
06:09 11.8 °C 6.1 °C 1007.7 hPa NNW 1.1 km/h 6.1 km/h 68% 0 mm
06:11 11.7 °C 6.2 °C 1007.7 hPa Calm   5 km/h 69% 0 mm
06:12 11.7 °C 6.2 °C 1007.7 hPa Calm   5 km/h 69% 0 mm
06:14 11.7 °C 6.2 °C 1007.3 hPa NNW 1.1 km/h 3.5 km/h 69% 0 mm
06:16 11.6 °C 6.3 °C 1007.7 hPa NNW 1.1 km/h 3.5 km/h 70% 0 mm
06:17 11.6 °C 6.3 °C 1007.7 hPa NNW 1.1 km/h 3.5 km/h 70% 0 mm
06:19 11.6 °C 6.5 °C 1007.7 hPa NNW 1.1 km/h 3.5 km/h 71% 0 mm
06:21 11.4 °C 6.4 °C 1007.7 hPa NNW 1.1 km/h 3.5 km/h 71% 0 mm
06:22 11.4 °C 6.4 °C 1007.7 hPa NNW 1.1 km/h 5 km/h 71% 0.25 mm
06:24 11.4 °C 6.6 °C 1007.3 hPa NNW 1.1 km/h 5 km/h 72% 0.25 mm
06:25 11.4 °C 6.6 °C 1007.3 hPa NNW 1.1 km/h 5 km/h 72% 0.25 mm
06:26 11.4 °C 6.5 °C 1007.7 hPa NNW 1.1 km/h 5 km/h 72% 0.25 mm
06:27 11.4 °C 6.5 °C 1007.7 hPa NNW 1.1 km/h 5 km/h 72% 0.25 mm
06:29 11.4 °C 6.7 °C 1007.3 hPa North 1.1 km/h 5 km/h 73% 0.25 mm
06:31 11.4 °C 6.7 °C 1007.7 hPa Calm   5 km/h 73% 0.25 mm
06:32 11.4 °C 6.7 °C 1007.3 hPa Calm   5 km/h 73% 0.25 mm
06:33 11.4 °C 6.7 °C 1007.3 hPa Calm   5 km/h 73% 0.25 mm
06:35 11.4 °C 6.9 °C 1007.3 hPa North 2.6 km/h 5 km/h 74% 0.25 mm
06:36 11.3 °C 6.8 °C 1007.3 hPa NNE 2.6 km/h 3.5 km/h 74% 0.25 mm
06:37 11.3 °C 6.8 °C 1007.7 hPa NNE 2.6 km/h 5 km/h 74% 0.25 mm
06:38 11.3 °C 6.8 °C 1007.7 hPa NNE 2.6 km/h 5 km/h 74% 0.25 mm
06:39 11.4 °C 6.9 °C 1007.7 hPa NNE 2.6 km/h 5 km/h 74% 0.25 mm
06:40 11.4 °C 7.1 °C 1007.3 hPa NNE 1.1 km/h 5 km/h 75% 0.25 mm
06:41 11.3 °C 7 °C 1007.3 hPa Calm   5 km/h 75% 0.76 mm
06:43 11.4 °C 7.1 °C 1007.7 hPa NNE 1.1 km/h 5 km/h 75% 0.76 mm
06:44 11.4 °C 7.1 °C 1007.3 hPa Calm   5 km/h 75% 0.76 mm
06:45 11.4 °C 7.3 °C 1007.3 hPa Calm   5 km/h 76% 0.76 mm
06:46 11.4 °C 7.3 °C 1007.7 hPa Calm   5 km/h 76% 0.76 mm
06:48 11.3 °C 7.2 °C 1007.7 hPa Calm   3.5 km/h 76% 0.76 mm
06:49 11.4 °C 7.7 °C 1007.3 hPa NNW 3.5 km/h 8.7 km/h 78% 0.76 mm
06:51 11.4 °C 8.1 °C 1007.3 hPa NNW 3.5 km/h 8.7 km/h 80% 0.76 mm
06:52 11.3 °C 7.9 °C 1007.3 hPa NW 1.1 km/h 8.7 km/h 80% 0.76 mm
06:53 11.4 °C 8.1 °C 1007.3 hPa NW 2.6 km/h 8.7 km/h 80% 0.76 mm
06:54 11.4 °C 8.1 °C 1007.3 hPa NW 2.6 km/h 8.7 km/h 80% 0.76 mm
06:55 11.4 °C 8.2 °C 1007.3 hPa NW 3.5 km/h 8.7 km/h 81% 0.76 mm
06:56 11.4 °C 8.2 °C 1007.7 hPa NW 2.6 km/h 8.7 km/h 81% 0.76 mm
06:57 11.4 °C 8.2 °C 1007.3 hPa NW 2.6 km/h 8.7 km/h 81% 0.76 mm
06:59 11.4 °C 8.2 °C 1007.7 hPa NW 1.1 km/h 8.7 km/h 81% 0.76 mm
07:00 11.4 °C 8.2 °C 1007.7 hPa WNW 2.6 km/h 8.7 km/h 81% 0.76 mm
07:01 11.4 °C 8.4 °C 1007.7 hPa NW 3.5 km/h 8.7 km/h 82% 0.76 mm
07:03 11.4 °C 8.4 °C 1007.7 hPa NW 5 km/h 8.7 km/h 82% 1.02 mm
07:04 11.4 °C 8.4 °C 1007.7 hPa NW 5 km/h 8.7 km/h 82% 1.02 mm
07:07 11.4 °C 8.8 °C 1007.7 hPa NW 3.5 km/h 9.7 km/h 84% 1.02 mm
07:09 11.3 °C 8.7 °C 1008 hPa NW 5 km/h 9.7 km/h 84% 1.02 mm
07:10 11.3 °C 8.7 °C 1008 hPa NW 3.5 km/h 9.7 km/h 84% 1.02 mm
07:12 11.3 °C 8.8 °C 1008 hPa NW 5 km/h 9.7 km/h 85% 1.02 mm
07:15 11.2 °C 8.9 °C 1008 hPa NW 5 km/h 11.1 km/h 86% 1.27 mm
07:18 11.2 °C 9.1 °C 1008 hPa NW 3.5 km/h 13.4 km/h 87% 1.27 mm
07:20 11.2 °C 9.1 °C 1008 hPa NW 3.5 km/h 13.4 km/h 87% 1.52 mm
07:22 11.2 °C 9.1 °C 1008 hPa NW 3.5 km/h 13.4 km/h 87% 1.27 mm
07:23 11.2 °C 9.1 °C 1007.7 hPa NW 1.1 km/h 13.4 km/h 87% 1.27 mm
07:25 11.1 °C 9 °C 1007.7 hPa NW 2.6 km/h 13.4 km/h 87% 1.52 mm
07:26 11.2 °C 9.3 °C 1008 hPa NW 3.5 km/h 13.4 km/h 88% 1.52 mm
07:27 11.1 °C 9.2 °C 1007.7 hPa NNW 2.6 km/h 9.7 km/h 88% 1.52 mm
07:28 11.1 °C 9.2 °C 1007.7 hPa NNW 3.5 km/h 9.7 km/h 88% 1.52 mm
07:29 11.1 °C 9.2 °C 1007.7 hPa NNW 3.5 km/h 9.7 km/h 88% 1.52 mm
07:30 11.1 °C 9.2 °C 1008 hPa NNW 2.6 km/h 9.7 km/h 88% 2.03 mm
07:32 11.1 °C 9.2 °C 1007.7 hPa NNW 2.6 km/h 7.2 km/h 88% 2.03 mm
07:33 11.1 °C 9.2 °C 1008 hPa NNW 3.5 km/h 7.2 km/h 88% 2.03 mm
07:34 11.1 °C 9.2 °C 1008 hPa NNW 3.5 km/h 7.2 km/h 88% 2.03 mm
07:35 11.1 °C 9.2 °C 1007.7 hPa NNW 2.6 km/h 7.2 km/h 88% 2.29 mm
07:36 11.1 °C 9.2 °C 1007.7 hPa NNW 2.6 km/h 7.2 km/h 88% 2.29 mm
07:38 11.1 °C 9.2 °C 1007.7 hPa NNW 1.1 km/h 7.2 km/h 88% 2.29 mm
07:39 11.1 °C 9.2 °C 1007.7 hPa NNW 1.1 km/h 7.2 km/h 88% 2.29 mm
07:40 11.1 °C 9.2 °C 1007.7 hPa NNW 2.6 km/h 7.2 km/h 88% 2.03 mm
07:41 11.1 °C 9.2 °C 1007.7 hPa North 2.6 km/h 7.2 km/h 88% 2.03 mm
07:44 11.1 °C 9.2 °C 1007.7 hPa North 3.5 km/h 9.7 km/h 88% 2.29 mm
07:45 11.1 °C 9.2 °C 1007.7 hPa NNE 6.1 km/h 11.1 km/h 88% 2.29 mm
07:46 11.1 °C 9.3 °C 1007.7 hPa NNE 2.6 km/h 12.2 km/h 89% 2.29 mm
07:49 11.1 °C 9.3 °C 1008 hPa North 2.6 km/h 12.2 km/h 89% 2.29 mm
07:50 11.1 °C 9.3 °C 1008 hPa North 2.6 km/h 12.2 km/h 89% 2.29 mm
07:51 11.1 °C 9.3 °C 1008 hPa North 1.1 km/h 12.2 km/h 89% 2.29 mm
07:55 11.1 °C 9.3 °C 1008 hPa North 1.1 km/h 12.2 km/h 89% 2.29 mm
07:56 11.1 °C 9.5 °C 1008 hPa North 2.6 km/h 7.2 km/h 90% 2.29 mm
07:57 11.2 °C 9.4 °C 1008 hPa North 2.6 km/h 7.2 km/h 89% 2.29 mm
08:00 11.1 °C 9.5 °C 1008 hPa North 2.6 km/h 8.7 km/h 90% 2.54 mm
08:01 11.1 °C 9.5 °C 1008 hPa North 2.6 km/h 8.7 km/h 90% 2.54 mm
08:02 11.1 °C 9.5 °C 1008 hPa North 2.6 km/h 8.7 km/h 90% 2.29 mm
08:03 11.1 °C 9.5 °C 1008 hPa North 2.6 km/h 8.7 km/h 90% 2.29 mm
08:04 11.1 °C 9.5 °C 1008 hPa North 2.6 km/h 8.7 km/h 90% 2.29 mm
08:05 11.1 °C 9.7 °C 1007.7 hPa North 5 km/h 9.7 km/h 91% 2.29 mm
08:06 11.1 °C 9.7 °C 1007.7 hPa North 2.6 km/h 11.1 km/h 91% 2.29 mm
08:07 11.1 °C 9.7 °C 1007.7 hPa North 2.6 km/h 11.1 km/h 91% 2.29 mm
08:08 11.1 °C 9.7 °C 1008 hPa North 3.5 km/h 11.1 km/h 91% 2.29 mm
08:09 11.1 °C 9.7 °C 1008 hPa North 2.6 km/h 11.1 km/h 91% 2.29 mm
08:11 11.1 °C 9.7 °C 1008 hPa North 2.6 km/h 11.1 km/h 91% 2.29 mm
08:12 11.1 °C 9.7 °C 1008 hPa Calm   11.1 km/h 91% 2.29 mm
08:13 11.1 °C 9.7 °C 1008 hPa North 1.1 km/h 11.1 km/h 91% 2.03 mm
08:14 11.1 °C 9.7 °C 1008 hPa North 1.1 km/h 11.1 km/h 91% 2.03 mm
08:16 11 °C 9.6 °C 1008 hPa Calm   11.1 km/h 91% 2.03 mm
08:17 11 °C 9.6 °C 1008.4 hPa Calm   7.2 km/h 91% 2.03 mm
08:18 11 °C 9.6 °C 1008 hPa North 1.1 km/h 7.2 km/h 91% 2.03 mm
08:19 11 °C 9.6 °C 1008.4 hPa Calm   7.2 km/h 91% 1.52 mm
08:20 11 °C 9.6 °C 1008.4 hPa NNW 2.6 km/h 6.1 km/h 91% 1.52 mm
08:21 11 °C 9.6 °C 1008.4 hPa NNW 1.1 km/h 6.1 km/h 91% 1.52 mm
08:23 11 °C 9.6 °C 1008.4 hPa NNW 2.6 km/h 7.2 km/h 91% 1.52 mm
08:24 10.9 °C 9.4 °C 1008.4 hPa NNW 2.6 km/h 7.2 km/h 91% 1.27 mm
08:25 10.9 °C 9.4 °C 1008.4 hPa North 2.6 km/h 7.2 km/h 91% 1.27 mm
08:27 10.9 °C 9.6 °C 1008.4 hPa North 3.5 km/h 8.7 km/h 92% 1.27 mm
08:28 10.9 °C 9.6 °C 1008.4 hPa North 3.5 km/h 8.7 km/h 92% 1.27 mm
08:29 10.9 °C 9.6 °C 1008.4 hPa North 7.2 km/h 14.8 km/h 92% 1.27 mm
08:30 10.9 °C 9.6 °C 1008.4 hPa North 3.5 km/h 14.8 km/h 92% 1.02 mm
08:32 10.8 °C 9.6 °C 1008.4 hPa North 3.5 km/h 14.8 km/h 92% 1.02 mm
08:33 10.8 °C 9.6 °C 1008.4 hPa North 2.6 km/h 14.8 km/h 92% 1.02 mm
08:35 10.8 °C 9.7 °C 1008.4 hPa NNW 6.1 km/h 14.8 km/h 93% 0.76 mm
08:36 10.8 °C 9.7 °C 1008.4 hPa NNW 3.5 km/h 14.8 km/h 93% 0.76 mm
08:37 10.8 °C 9.7 °C 1008.4 hPa NNW 6.1 km/h 14.8 km/h 93% 0.76 mm
08:38 10.8 °C 9.7 °C 1008.4 hPa NNW 3.5 km/h 14.8 km/h 93% 0.76 mm
08:39 10.8 °C 9.7 °C 1008.4 hPa NNW 3.5 km/h 14.8 km/h 93% 0.76 mm
08:40 10.8 °C 9.7 °C 1008.4 hPa NNW 3.5 km/h 14.8 km/h 93% 0.76 mm
08:42 10.8 °C 9.7 °C 1008.4 hPa NNW 6.1 km/h 14.8 km/h 93% 0.76 mm
08:43 10.8 °C 9.7 °C 1008.4 hPa NNW 3.5 km/h 14.8 km/h 93% 0.25 mm
08:44 10.8 °C 9.8 °C 1008.4 hPa NNW 3.5 km/h 14.8 km/h 94% 0.25 mm
08:45 10.8 °C 9.8 °C 1008.4 hPa NNW 3.5 km/h 14.8 km/h 94% 0.25 mm
08:47 10.8 °C 9.8 °C 1008.7 hPa NNW 1.1 km/h 13.4 km/h 94% 0.25 mm
08:49 10.8 °C 9.8 °C 1008.7 hPa NNW 3.5 km/h 12.2 km/h 94% 0.25 mm
08:50 10.8 °C 9.8 °C 1008.7 hPa NNW 5 km/h 12.2 km/h 94% 0.25 mm
08:51 10.8 °C 9.8 °C 1008.4 hPa North 3.5 km/h 9.7 km/h 94% 0.25 mm
08:53 10.8 °C 9.8 °C 1008.7 hPa NNW 5 km/h 9.7 km/h 94% 0.25 mm
08:54 10.8 °C 10 °C 1008.4 hPa NNW 6.1 km/h 9.7 km/h 95% 0.25 mm
08:55 10.8 °C 10 °C 1008.4 hPa NNW 5 km/h 9.7 km/h 95% 0.25 mm
08:56 10.8 °C 10 °C 1008.7 hPa NNW 3.5 km/h 9.7 km/h 95% 0.25 mm
08:59 10.9 °C 10.1 °C 1008.7 hPa NNW 2.6 km/h 9.7 km/h 95% 0 mm
09:00 10.9 °C 10.1 °C 1008.4 hPa NNW 1.1 km/h 9.7 km/h 95% 0 mm
09:02 10.9 °C 10.1 °C 1008.7 hPa NNW 3.5 km/h 9.7 km/h 95% 0 mm
09:04 10.9 °C 10.1 °C 1008.7 hPa NNW 5 km/h 9.7 km/h 95% 0 mm
09:05 10.9 °C 10.1 °C 1008.4 hPa NNW 6.1 km/h 11.1 km/h 95% 0 mm
09:06 10.9 °C 10.1 °C 1008.7 hPa NNW 6.1 km/h 11.1 km/h 95% 0 mm
09:07 10.9 °C 10.1 °C 1008.7 hPa North 7.2 km/h 15.8 km/h 95% 0 mm
09:09 10.9 °C 10.1 °C 1008.4 hPa NNW 5 km/h 15.8 km/h 95% 0 mm
09:10 10.9 °C 10.1 °C 1008.4 hPa North 6.1 km/h 15.8 km/h 95% 0 mm
09:11 10.9 °C 10.3 °C 1008.4 hPa NNW 6.1 km/h 15.8 km/h 96% 0 mm
09:12 10.9 °C 10.1 °C 1008.7 hPa North 6.1 km/h 15.8 km/h 95% 0 mm
09:14 10.8 °C 10.2 °C 1008.4 hPa North 3.5 km/h 15.8 km/h 96% 0 mm
09:15 10.8 °C 10.2 °C 1008.4 hPa North 3.5 km/h 15.8 km/h 96% 0 mm
09:16 10.8 °C 10.2 °C 1008.4 hPa North 6.1 km/h 15.8 km/h 96% 0 mm
09:17 10.8 °C 10.2 °C 1008.4 hPa North 6.1 km/h 15.8 km/h 96% 0 mm
09:20 10.8 °C 10.2 °C 1008.7 hPa North 7.2 km/h 14.8 km/h 96% 0 mm
09:21 10.7 °C 10.1 °C 1008.7 hPa North 3.5 km/h 14.8 km/h 96% 0 mm
09:22 10.7 °C 10.1 °C 1008.7 hPa North 3.5 km/h 14.8 km/h 96% 0 mm
09:23 10.8 °C 10.2 °C 1008.4 hPa North 2.6 km/h 14.8 km/h 96% 0 mm
09:25 10.7 °C 10.2 °C 1008.7 hPa NNW 6.1 km/h 14.8 km/h 97% 0 mm
09:26 10.8 °C 10.3 °C 1008.7 hPa NNW 3.5 km/h 14.8 km/h 97% 0 mm
09:27 10.8 °C 10.3 °C 1008.7 hPa North 5 km/h 13.4 km/h 97% 0 mm
09:28 10.8 °C 10.3 °C 1008.7 hPa North 5 km/h 13.4 km/h 97% 0 mm
09:29 10.8 °C 10.3 °C 1008.7 hPa North 5 km/h 13.4 km/h 97% 0 mm
09:31 10.8 °C 10.3 °C 1008.7 hPa North 6.1 km/h 11.1 km/h 97% 0 mm
09:32 10.9 °C 10.4 °C 1008.4 hPa North 3.5 km/h 11.1 km/h 97% 0 mm
09:33 10.9 °C 10.4 °C 1008.4 hPa North 2.6 km/h 11.1 km/h 97% 0 mm
09:34 10.9 °C 10.4 °C 1008.4 hPa North 5 km/h 11.1 km/h 97% 0 mm
09:35 10.9 °C 10.4 °C 1008.4 hPa North 5 km/h 11.1 km/h 97% 0 mm
09:36 10.9 °C 10.4 °C 1008.4 hPa North 5 km/h 11.1 km/h 97% 0 mm
09:37 10.9 °C 10.4 °C 1008.4 hPa North 5 km/h 11.1 km/h 97% 0 mm
09:38 11 °C 10.5 °C 1008.4 hPa North 5 km/h 11.1 km/h 97% 0 mm
09:39 11 °C 10.5 °C 1008.4 hPa North 2.6 km/h 11.1 km/h 97% 0 mm
09:40 11 °C 10.5 °C 1008.4 hPa North 2.6 km/h 11.1 km/h 97% 0 mm
09:42 11.1 °C 10.6 °C 1008.4 hPa NNE 6.1 km/h 9.7 km/h 97% 0 mm
09:43 11.1 °C 10.6 °C 1008.4 hPa NNE 2.6 km/h 11.1 km/h 97% 0 mm
09:44 11.1 °C 10.6 °C 1008.4 hPa NNE 2.6 km/h 11.1 km/h 97% 0 mm
09:45 11.1 °C 10.6 °C 1008.4 hPa NNE 2.6 km/h 11.1 km/h 97% 0 mm
09:46 11.2 °C 10.7 °C 1008.4 hPa NNE 6.1 km/h 11.1 km/h 97% 0 mm
09:49 11.3 °C 10.8 °C 1008.4 hPa NNE 3.5 km/h 11.1 km/h 97% 0 mm
09:50 11.3 °C 10.8 °C 1008.4 hPa NNE 2.6 km/h 11.1 km/h 97% 0 mm
09:51 11.3 °C 10.8 °C 1008.7 hPa North 6.1 km/h 11.1 km/h 97% 0 mm
09:54 11.3 °C 10.8 °C 1008.7 hPa North 3.5 km/h 12.2 km/h 97% 0 mm
09:56 11.4 °C 10.9 °C 1008.7 hPa North 3.5 km/h 12.2 km/h 97% 0 mm
09:57 11.4 °C 10.9 °C 1008.7 hPa North 5 km/h 12.2 km/h 97% 0 mm
09:59 11.4 °C 10.9 °C 1008.7 hPa NNW 2.6 km/h 12.2 km/h 97% 0 mm
10:00 11.4 °C 10.9 °C 1008.7 hPa North 8.7 km/h 12.2 km/h 97% 0 mm
10:01 11.4 °C 10.9 °C 1008.7 hPa North 5 km/h 12.2 km/h 97% 0 mm
10:02 11.4 °C 10.9 °C 1008.7 hPa North 7.2 km/h 12.2 km/h 97% 0 mm
10:04 11.4 °C 11 °C 1008.7 hPa NNE 2.6 km/h 12.2 km/h 97% 0 mm
10:05 11.4 °C 10.9 °C 1008.7 hPa NNE 2.6 km/h 12.2 km/h 97% 0 mm
10:06 11.4 °C 11 °C 1008.7 hPa NNE 3.5 km/h 12.2 km/h 97% 0 mm
10:07 11.4 °C 11 °C 1008.7 hPa North 2.6 km/h 12.2 km/h 97% 0 mm
10:08 11.4 °C 11 °C 1008.7 hPa NNE 2.6 km/h 12.2 km/h 97% 0 mm
10:09 11.6 °C 11.1 °C 1008.7 hPa North 8.7 km/h 12.2 km/h 97% 0 mm
10:10 11.6 °C 11.1 °C 1008.4 hPa North 5 km/h 12.2 km/h 97% 0 mm
10:11 11.6 °C 11.1 °C 1008.4 hPa North 2.6 km/h 12.2 km/h 97% 0 mm
10:12 11.7 °C 11.2 °C 1008.7 hPa North 5 km/h 12.2 km/h 97% 0 mm
10:13 11.7 °C 11.2 °C 1008.4 hPa North 5 km/h 12.2 km/h 97% 0 mm
10:15 11.8 °C 11.3 °C 1008.4 hPa North 3.5 km/h 12.2 km/h 97% 0 mm
10:16 11.8 °C 11.3 °C 1008.4 hPa North 5 km/h 12.2 km/h 97% 0 mm
10:17 11.8 °C 11.3 °C 1008.4 hPa North 5 km/h 12.2 km/h 97% 0 mm
10:19 11.9 °C 11.5 °C 1008.4 hPa North 3.5 km/h 12.2 km/h 97% 0 mm
10:20 11.9 °C 11.5 °C 1008.4 hPa North 3.5 km/h 9.7 km/h 97% 0 mm
10:22 11.9 °C 11.5 °C 1008.4 hPa North 3.5 km/h 9.7 km/h 97% 0 mm
10:25 12.1 °C 11.4 °C 1008.4 hPa North 2.6 km/h 9.7 km/h 96% 0 mm
10:26 12.1 °C 11.4 °C 1008.4 hPa North 2.6 km/h 9.7 km/h 96% 0 mm
10:28 12.1 °C 11.4 °C 1008.4 hPa NNW 3.5 km/h 13.4 km/h 96% 0 mm
10:30 12.1 °C 11.3 °C 1008.4 hPa North 2.6 km/h 13.4 km/h 95% 0 mm
10:31 12.1 °C 11.3 °C 1008.4 hPa NNW 3.5 km/h 13.4 km/h 95% 0 mm
10:32 12.1 °C 11.3 °C 1008.7 hPa NNW 2.6 km/h 13.4 km/h 95% 0 mm
10:33 12.2 °C 11.4 °C 1008.4 hPa NNW 5 km/h 13.4 km/h 95% 0 mm
10:34 12.2 °C 11.4 °C 1008.4 hPa NNW 2.6 km/h 13.4 km/h 95% 0 mm
10:35 12.2 °C 11.6 °C 1008.4 hPa NNW 6.1 km/h 13.4 km/h 96% 0 mm
10:37 12.3 °C 11.7 °C 1008.7 hPa NNW 6.1 km/h 13.4 km/h 96% 0 mm
10:38 12.3 °C 11.7 °C 1008.7 hPa NNW 5 km/h 11.1 km/h 96% 0 mm
10:39 12.4 °C 11.8 °C 1008.4 hPa NNW 3.5 km/h 11.1 km/h 96% 0 mm
10:42 12.7 °C 11.9 °C 1008.4 hPa North 9.7 km/h 14.8 km/h 95% 0 mm
10:43 12.7 °C 11.9 °C 1008.7 hPa NNW 3.5 km/h 14.8 km/h 95% 0 mm
10:44 12.7 °C 11.9 °C 1008.4 hPa North 6.1 km/h 14.8 km/h 95% 0 mm
10:45 12.7 °C 11.9 °C 1008.4 hPa North 6.1 km/h 14.8 km/h 95% 0 mm
10:47 12.8 °C 12.1 °C 1008.4 hPa North 5 km/h 14.8 km/h 95% 0 mm
10:49 12.9 °C 12 °C 1008.4 hPa North 1.1 km/h 14.8 km/h 94% 0 mm
10:50 12.9 °C 12 °C 1008.4 hPa North 2.6 km/h 14.8 km/h 94% 0 mm
10:52 12.9 °C 12 °C 1008.4 hPa North 3.5 km/h 14.8 km/h 94% 0 mm
10:53 13.1 °C 11.9 °C 1008.4 hPa North 5 km/h 12.2 km/h 93% 0 mm
10:54 13.1 °C 11.9 °C 1008.4 hPa North 5 km/h 12.2 km/h 93% 0 mm
10:55 13.1 °C 11.9 °C 1008.4 hPa North 5 km/h 11.1 km/h 93% 0 mm
10:57 13.1 °C 12.1 °C 1008.4 hPa North 2.6 km/h 8.7 km/h 93% 0 mm
10:59 13.1 °C 11.9 °C 1008.4 hPa NNE 3.5 km/h 8.7 km/h 92% 0 mm
11:00 13.1 °C 11.9 °C 1008.4 hPa North 6.1 km/h 13.4 km/h 92% 0 mm
11:01 13.1 °C 11.9 °C 1008.4 hPa North 3.5 km/h 13.4 km/h 92% 0 mm
11:02 13.1 °C 11.7 °C 1008.4 hPa North 5 km/h 13.4 km/h 91% 0 mm
11:03 13.1 °C 11.7 °C 1008.4 hPa North 5 km/h 13.4 km/h 91% 0 mm
11:05 13.1 °C 11.6 °C 1008.4 hPa North 5 km/h 13.4 km/h 91% 0 mm
11:06 13.1 °C 11.6 °C 1008.4 hPa North 1.1 km/h 13.4 km/h 91% 0 mm
11:08 13.1 °C 11.6 °C 1008.4 hPa North 2.6 km/h 13.4 km/h 91% 0 mm
11:10 12.9 °C 11.3 °C 1008.4 hPa NNW 5 km/h 14.8 km/h 90% 0 mm
11:11 12.9 °C 11.3 °C 1008.4 hPa NNW 3.5 km/h 14.8 km/h 90% 0 mm
11:12 12.9 °C 11.3 °C 1008.4 hPa North 3.5 km/h 14.8 km/h 90% 0 mm
11:14 12.9 °C 11.3 °C 1008.4 hPa NNW 5 km/h 14.8 km/h 90% 0 mm
11:16 12.8 °C 11.1 °C 1008.4 hPa NNW 5 km/h 14.8 km/h 89% 0 mm
11:18 12.8 °C 11.1 °C 1008.4 hPa NNW 9.7 km/h 17.2 km/h 89% 0 mm
11:19 12.8 °C 11.1 °C 1008.4 hPa NNW 5 km/h 17.2 km/h 89% 0 mm
11:21 12.7 °C 11 °C 1008.7 hPa NNW 5 km/h 17.2 km/h 89% 0 mm
11:22 12.7 °C 11 °C 1008.4 hPa NNW 5 km/h 17.2 km/h 89% 0 mm
11:23 12.7 °C 11 °C 1008.4 hPa NNW 6.1 km/h 17.2 km/h 89% 0 mm
11:24 12.7 °C 11 °C 1008.4 hPa NNW 7.2 km/h 17.2 km/h 89% 0 mm
11:26 12.7 °C 11 °C 1008.4 hPa NNW 7.2 km/h 17.2 km/h 89% 0 mm
11:27 12.7 °C 10.8 °C 1008.7 hPa NNW 6.1 km/h 17.2 km/h 88% 0 mm
11:28 12.7 °C 11 °C 1008.7 hPa North 6.1 km/h 14.8 km/h 89% 0 mm
11:29 12.7 °C 10.8 °C 1008.4 hPa North 5 km/h 14.8 km/h 88% 0 mm
11:30 12.7 °C 11 °C 1008.7 hPa NNW 7.2 km/h 14.8 km/h 89% 0 mm
11:31 12.7 °C 10.9 °C 1008.4 hPa NNW 8.7 km/h 14.8 km/h 89% 0 mm
11:33 12.7 °C 10.9 °C 1008.7 hPa NNW 7.2 km/h 14.8 km/h 89% 0 mm
11:34 12.7 °C 10.9 °C 1008.4 hPa NNW 3.5 km/h 14.8 km/h 89% 0 mm
11:35 12.7 °C 10.9 °C 1008.4 hPa NNW 6.1 km/h 14.8 km/h 89% 0 mm
11:37 12.6 °C 10.8 °C 1008.4 hPa NNW 5 km/h 14.8 km/h 89% 0 mm
11:38 12.7 °C 10.9 °C 1008.4 hPa NW 5 km/h 14.8 km/h 89% 0 mm
11:39 12.7 °C 10.9 °C 1008.4 hPa NW 5 km/h 14.8 km/h 89% 0 mm
11:40 12.7 °C 10.9 °C 1008.7 hPa NW 5 km/h 14.8 km/h 89% 0 mm
11:42 12.7 °C 10.9 °C 1008.4 hPa NW 5 km/h 14.8 km/h 89% 0 mm
11:44 12.7 °C 10.9 °C 1008.4 hPa NW 3.5 km/h 14.8 km/h 89% 0 mm
11:45 12.7 °C 10.9 °C 1008.4 hPa NW 2.6 km/h 14.8 km/h 89% 0 mm
11:46 12.7 °C 10.9 °C 1008.4 hPa NW 5 km/h 14.8 km/h 89% 0 mm
11:47 12.7 °C 11 °C 1008.4 hPa NW 5 km/h 11.1 km/h 89% 0 mm
11:49 12.7 °C 11 °C 1008.4 hPa NNW 5 km/h 11.1 km/h 89% 0 mm
11:50 12.7 °C 10.8 °C 1008.4 hPa NNW 5 km/h 11.1 km/h 88% 0 mm
11:51 12.7 °C 10.8 °C 1008.4 hPa NNW 7.2 km/h 14.8 km/h 88% 0 mm
11:53 12.7 °C 10.7 °C 1008.4 hPa NNW 6.1 km/h 14.8 km/h 88% 0 mm
11:54 12.7 °C 10.7 °C 1008.4 hPa NNW 6.1 km/h 14.8 km/h 88% 0 mm
11:55 12.7 °C 10.7 °C 1008.4 hPa NNW 6.1 km/h 14.8 km/h 88% 0 mm
11:56 12.7 °C 10.7 °C 1008 hPa NNW 3.5 km/h 14.8 km/h 88% 0 mm
11:57 12.7 °C 10.7 °C 1008.4 hPa NNW 5 km/h 14.8 km/h 88% 0 mm
11:58 12.7 °C 10.7 °C 1008 hPa NNW 5 km/h 14.8 km/h 88% 0 mm
11:59 12.7 °C 10.7 °C 1008 hPa NNW 7.2 km/h 14.8 km/h 88% 0 mm
12:00 12.7 °C 10.4 °C 1008.4 hPa NW 7.2 km/h 17.2 km/h 86% 0 mm
12:01 12.7 °C 10.6 °C 1008.4 hPa NW 5 km/h 17.2 km/h 87% 0 mm
12:02 12.7 °C 10.6 °C 1008.4 hPa NW 3.5 km/h 17.2 km/h 87% 0 mm
12:03 12.7 °C 10.6 °C 1008.4 hPa WNW 5 km/h 17.2 km/h 87% 0 mm
12:04 12.7 °C 10.6 °C 1008.4 hPa WNW 5 km/h 17.2 km/h 87% 0 mm
12:05 12.7 °C 10.6 °C 1008.4 hPa WNW 5 km/h 17.2 km/h 87% 0 mm
12:07 12.7 °C 10.6 °C 1008.4 hPa WNW 5 km/h 17.2 km/h 87% 0 mm
12:09 12.7 °C 10.6 °C 1008.4 hPa NW 6.1 km/h 17.2 km/h 87% 0 mm
12:11 12.6 °C 10.4 °C 1008 hPa NW 3.5 km/h 14.8 km/h 87% 0 mm
12:12 12.6 °C 10.3 °C 1008 hPa NW 7.2 km/h 14.8 km/h 86% 0 mm
12:14 12.4 °C 10.3 °C 1008.4 hPa NW 6.1 km/h 14.8 km/h 87% 0 mm
12:17 12.2 °C 10.3 °C 1008.4 hPa WNW 5 km/h 14.8 km/h 88% 0 mm
12:19 12.1 °C 10.1 °C 1008.4 hPa West 8.7 km/h 14.8 km/h 88% 0 mm
12:20 11.9 °C 10.2 °C 1008.4 hPa WSW 8.7 km/h 13.4 km/h 89% 0.25 mm
12:22 11.8 °C 10.3 °C 1008.4 hPa SW 2.6 km/h 13.4 km/h 90% 0.25 mm
12:23 11.8 °C 10.3 °C 1008.4 hPa WSW 2.6 km/h 13.4 km/h 90% 0.25 mm
12:24 11.8 °C 10.2 °C 1008.4 hPa WNW 2.6 km/h 13.4 km/h 90% 0.25 mm
12:25 11.8 °C 10.2 °C 1008.4 hPa NW 5 km/h 13.4 km/h 90% 0.25 mm
12:27 11.8 °C 10.3 °C 1008.4 hPa NW 3.5 km/h 13.4 km/h 91% 0.25 mm
12:29 11.7 °C 10.2 °C 1008.4 hPa NW 2.6 km/h 13.4 km/h 91% 0.25 mm
12:30 11.8 °C 10.3 °C 1008.4 hPa NW 6.1 km/h 13.4 km/h 91% 0.25 mm
12:31 11.7 °C 10.2 °C 1008.4 hPa NW 5 km/h 9.7 km/h 91% 0.25 mm
12:33 11.7 °C 10.2 °C 1008.4 hPa NW 6.1 km/h 14.8 km/h 91% 0.25 mm
12:35 11.7 °C 10.2 °C 1008.4 hPa WNW 6.1 km/h 15.8 km/h 91% 0.25 mm
12:36 11.7 °C 10.1 °C 1008.4 hPa West 2.6 km/h 15.8 km/h 90% 0.25 mm
12:38 11.7 °C 10.2 °C 1008.4 hPa West 6.1 km/h 15.8 km/h 91% 0.25 mm
12:40 11.7 °C 10.2 °C 1008.4 hPa WNW 5 km/h 15.8 km/h 91% 0.25 mm
12:41 11.7 °C 10.1 °C 1008.4 hPa WNW 6.1 km/h 17.2 km/h 90% 0.25 mm
12:42 11.7 °C 10.1 °C 1008.4 hPa WNW 7.2 km/h 17.2 km/h 90% 0.25 mm
12:43 11.7 °C 10.1 °C 1008.4 hPa NW 9.7 km/h 17.2 km/h 90% 0.25 mm
12:45 11.7 °C 10.1 °C 1008.4 hPa NNW 6.1 km/h 17.2 km/h 90% 0.25 mm
12:46 11.7 °C 10.1 °C 1008.4 hPa NNW 6.1 km/h 17.2 km/h 90% 0.25 mm
12:47 11.7 °C 10.2 °C 1008.4 hPa NNW 6.1 km/h 17.2 km/h 91% 0.25 mm
12:48 11.7 °C 10.2 °C 1008.4 hPa NNW 3.5 km/h 17.2 km/h 91% 0.25 mm
12:51 11.8 °C 10.3 °C 1008.4 hPa NW 7.2 km/h 17.2 km/h 91% 0.25 mm
12:52 11.7 °C 10.2 °C 1008.4 hPa NW 8.7 km/h 17.2 km/h 91% 0.25 mm
12:53 11.7 °C 10.1 °C 1008.4 hPa NW 13.4 km/h 20.9 km/h 90% 0.25 mm
12:55 11.6 °C 10 °C 1008.4 hPa NW 8.7 km/h 20.9 km/h 90% 0.25 mm
12:56 11.6 °C 10 °C 1008.7 hPa NW 9.7 km/h 20.9 km/h 90% 0.25 mm
12:57 11.6 °C 10 °C 1008.4 hPa NW 5 km/h 20.9 km/h 90% 0.25 mm
12:58 11.4 °C 9.9 °C 1008.4 hPa NW 7.2 km/h 20.9 km/h 90% 0.25 mm
12:59 11.4 °C 9.9 °C 1008.4 hPa NW 11.1 km/h 20.9 km/h 90% 0.25 mm
13:00 11.4 °C 9.8 °C 1008.4 hPa NNW 7.2 km/h 20.9 km/h 90% 0.25 mm
13:01 11.4 °C 9.8 °C 1008.4 hPa NNW 3.5 km/h 20.9 km/h 90% 0.25 mm
13:02 11.4 °C 9.8 °C 1008 hPa NW 5 km/h 20.9 km/h 90% 0.25 mm
13:03 11.4 °C 9.8 °C 1008 hPa NW 7.2 km/h 17.2 km/h 90% 0.25 mm
13:04 11.3 °C 9.7 °C 1008.4 hPa WNW 9.7 km/h 17.2 km/h 90% 0.25 mm
13:05 11.3 °C 9.7 °C 1008.4 hPa NW 3.5 km/h 17.2 km/h 90% 0.25 mm
13:06 11.3 °C 9.8 °C 1008.4 hPa WNW 2.6 km/h 17.2 km/h 91% 0.25 mm
13:07 11.3 °C 9.8 °C 1008.4 hPa NW 7.2 km/h 17.2 km/h 91% 0.25 mm
13:08 11.3 °C 9.8 °C 1008.4 hPa NW 7.2 km/h 17.2 km/h 91% 0.25 mm
13:09 11.3 °C 9.8 °C 1008 hPa NW 5 km/h 17.2 km/h 91% 0.25 mm
13:11 11.3 °C 9.8 °C 1008.4 hPa WNW 5 km/h 17.2 km/h 91% 0.25 mm
13:12 11.3 °C 9.8 °C 1008.4 hPa West 2.6 km/h 17.2 km/h 91% 0.25 mm
13:13 11.3 °C 9.8 °C 1008 hPa West 8.7 km/h 17.2 km/h 91% 0.76 mm
13:14 11.2 °C 9.8 °C 1008 hPa West 5 km/h 15.8 km/h 91% 0.76 mm
13:15 11.2 °C 9.8 °C 1008 hPa West 7.2 km/h 15.8 km/h 91% 0.76 mm
13:16 11.2 °C 9.8 °C 1008.4 hPa WNW 6.1 km/h 15.8 km/h 91% 0.76 mm
13:17 11.2 °C 9.8 °C 1008 hPa WNW 3.5 km/h 15.8 km/h 91% 0.76 mm
13:18 11.3 °C 9.8 °C 1008 hPa West 7.2 km/h 15.8 km/h 91% 0.76 mm
13:20 11.3 °C 9.8 °C 1008 hPa West 7.2 km/h 15.8 km/h 91% 0.25 mm
13:22 11.4 °C 10.1 °C 1008 hPa West 3.5 km/h 15.8 km/h 92% 0.25 mm
13:23 11.4 °C 10.1 °C 1008 hPa West 3.5 km/h 15.8 km/h 92% 0.25 mm
13:25 11.4 °C 10.2 °C 1008 hPa WSW 3.5 km/h 13.4 km/h 92% 0.25 mm
13:26 11.4 °C 10.2 °C 1008 hPa SW 5 km/h 13.4 km/h 92% 0.25 mm
13:27 11.4 °C 10.2 °C 1008 hPa SW 6.1 km/h 13.4 km/h 92% 0.25 mm
13:28 11.4 °C 10.2 °C 1008 hPa SSW 5 km/h 15.8 km/h 92% 0.25 mm
13:30 11.4 °C 10.2 °C 1007.7 hPa SSW 7.2 km/h 15.8 km/h 92% 0.25 mm
13:31 11.4 °C 10.1 °C 1008 hPa South 6.1 km/h 15.8 km/h 91% 0.25 mm
13:32 11.4 °C 10.1 °C 1008 hPa South 5 km/h 15.8 km/h 91% 0.25 mm
13:33 11.4 °C 10.2 °C 1008 hPa NNW 5 km/h 15.8 km/h 92% 0.25 mm
13:34 11.4 °C 10.2 °C 1008 hPa NNW 5 km/h 15.8 km/h 92% 0.25 mm
13:35 11.4 °C 10.1 °C 1008 hPa NNE 7.2 km/h 15.8 km/h 91% 0.25 mm
13:36 11.4 °C 10.1 °C 1007.7 hPa North 8.7 km/h 15.8 km/h 91% 0.25 mm
13:37 11.4 °C 10.1 °C 1007.7 hPa North 8.7 km/h 15.8 km/h 91% 0.25 mm
13:38 11.4 °C 10.1 °C 1008 hPa NNW 5 km/h 14.8 km/h 91% 0.25 mm
13:39 11.4 °C 10.1 °C 1008 hPa NNW 5 km/h 14.8 km/h 91% 0.25 mm
13:41 11.6 °C 10.2 °C 1007.7 hPa NNW 7.2 km/h 14.8 km/h 91% 0.25 mm
13:42 11.6 °C 10.2 °C 1007.7 hPa NW 3.5 km/h 14.8 km/h 91% 0.25 mm
13:43 11.7 °C 10.2 °C 1007.7 hPa WNW 3.5 km/h 14.8 km/h 91% 0.25 mm
13:44 11.7 °C 10.2 °C 1008 hPa WNW 6.1 km/h 14.8 km/h 91% 0.25 mm
13:46 11.8 °C 10.2 °C 1008 hPa WNW 7.2 km/h 15.8 km/h 90% 0.25 mm
13:47 11.8 °C 10.2 °C 1007.7 hPa WNW 8.7 km/h 15.8 km/h 90% 0.25 mm
13:48 11.8 °C 10.1 °C 1007.7 hPa WNW 7.2 km/h 15.8 km/h 89% 0.25 mm
13:49 11.8 °C 10.1 °C 1007.7 hPa WNW 7.2 km/h 15.8 km/h 89% 0.25 mm
13:50 11.8 °C 10.1 °C 1007.7 hPa WNW 7.2 km/h 15.8 km/h 89% 0.25 mm
13:51 11.8 °C 9.9 °C 1007.7 hPa WNW 6.1 km/h 15.8 km/h 88% 0.25 mm
13:52 11.8 °C 9.9 °C 1007.7 hPa NW 6.1 km/h 15.8 km/h 88% 0.25 mm
13:53 11.8 °C 9.9 °C 1007.7 hPa NW 6.1 km/h 15.8 km/h 88% 0.25 mm
13:54 11.9 °C 10.1 °C 1007.7 hPa NW 3.5 km/h 15.8 km/h 88% 0.25 mm
13:55 12.1 °C 9.9 °C 1007.7 hPa WNW 5 km/h 15.8 km/h 87% 0.25 mm
13:56 12.2 °C 10.1 °C 1007.7 hPa WNW 6.1 km/h 15.8 km/h 87% 0.25 mm
13:58 12.2 °C 10.2 °C 1007.7 hPa WNW 3.5 km/h 13.4 km/h 87% 0.25 mm
13:59 12.3 °C 10.2 °C 1007.7 hPa WNW 5 km/h 12.2 km/h 87% 0.25 mm
14:01 12.3 °C 10.1 °C 1007.3 hPa WNW 7.2 km/h 12.2 km/h 86% 0.25 mm
14:04 12.4 °C 9.7 °C 1007.7 hPa West 6.1 km/h 12.2 km/h 83% 0.25 mm
14:06 12.4 °C 9.7 °C 1007.7 hPa West 5 km/h 12.2 km/h 83% 0.25 mm
14:07 12.4 °C 9.7 °C 1007.7 hPa WSW 5 km/h 12.2 km/h 83% 0.25 mm
14:08 12.4 °C 9.7 °C 1007.7 hPa WSW 7.2 km/h 12.2 km/h 83% 0.25 mm
14:11 12.4 °C 9.4 °C 1007.7 hPa West 5 km/h 14.8 km/h 82% 0.25 mm
14:12 12.6 °C 9.6 °C 1007.7 hPa WSW 5 km/h 14.8 km/h 82% 0.25 mm
14:13 12.6 °C 9.6 °C 1007.7 hPa SW 7.2 km/h 14.8 km/h 82% 0 mm
14:17 12.6 °C 9.6 °C 1007.7 hPa South 5 km/h 14.8 km/h 82% 0 mm
14:18 12.7 °C 9.7 °C 1007.7 hPa South 6.1 km/h 14.8 km/h 82% 0 mm
14:22 12.7 °C 9.7 °C 1007.7 hPa SSW 5 km/h 12.2 km/h 82% 0 mm
14:23 12.7 °C 9.6 °C 1007.7 hPa SW 8.7 km/h 12.2 km/h 81% 0 mm
14:25 12.7 °C 9.6 °C 1007.7 hPa SW 6.1 km/h 12.2 km/h 81% 0 mm
14:27 12.8 °C 9.8 °C 1007.7 hPa WSW 1.1 km/h 12.2 km/h 82% 0 mm
14:28 12.8 °C 9.8 °C 1007.7 hPa WSW 1.1 km/h 12.2 km/h 82% 0 mm
14:29 12.8 °C 9.8 °C 1007.7 hPa WSW 6.1 km/h 12.2 km/h 82% 0 mm
14:30 13.1 °C 10.1 °C 1007.7 hPa WSW 3.5 km/h 12.2 km/h 82% 0 mm
14:32 13.1 °C 10.1 °C 1007.7 hPa West 5 km/h 11.1 km/h 82% 0 mm
14:33 13.1 °C 9.8 °C 1007.7 hPa WSW 5 km/h 11.1 km/h 80% 0 mm
14:34 13.1 °C 9.6 °C 1007.7 hPa West 5 km/h 11.1 km/h 79% 0 mm
14:35 13.1 °C 9.4 °C 1007.7 hPa West 9.7 km/h 14.8 km/h 78% 0 mm
14:38 13.1 °C 9.4 °C 1007.7 hPa West 7.2 km/h 14.8 km/h 78% 0 mm
14:39 13.1 °C 9.3 °C 1007.7 hPa West 6.1 km/h 14.8 km/h 78% 0 mm
14:40 13.1 °C 9.1 °C 1007.7 hPa West 6.1 km/h 14.8 km/h 77% 0 mm
14:43 13.1 °C 9.3 °C 1007.7 hPa WNW 2.6 km/h 14.8 km/h 78% 0 mm
14:44 13.1 °C 9.3 °C 1007.7 hPa WNW 5 km/h 14.8 km/h 78% 0 mm
14:45 13.1 °C 9.3 °C 1007.7 hPa WSW 8.7 km/h 12.2 km/h 78% 0 mm
14:46 13.1 °C 9.3 °C 1007.7 hPa WSW 7.2 km/h 12.2 km/h 78% 0 mm
14:48 13.1 °C 9.3 °C 1007.7 hPa NW 5 km/h 12.2 km/h 78% 0 mm
14:49 12.9 °C 9.2 °C 1007.7 hPa NW 3.5 km/h 12.2 km/h 78% 0 mm
14:51 12.9 °C 9.2 °C 1007.7 hPa NW 2.6 km/h 12.2 km/h 78% 0 mm
14:52 12.9 °C 9.2 °C 1007.7 hPa NW 2.6 km/h 12.2 km/h 78% 0 mm
14:53 12.9 °C 9.2 °C 1007.7 hPa WNW 6.1 km/h 12.2 km/h 78% 0 mm
14:54 13.1 °C 9.5 °C 1007.7 hPa WNW 6.1 km/h 12.2 km/h 79% 0 mm
14:56 12.9 °C 9.2 °C 1008.4 hPa WNW 9.7 km/h 15.8 km/h 78% 0 mm
14:58 12.8 °C 9.3 °C 1008.7 hPa West 15.8 km/h 21.9 km/h 79% 0 mm
14:59 12.2 °C 8.9 °C 1009 hPa WNW 24.5 km/h 37.8 km/h 80% 0 mm
15:01 11.8 °C 8.9 °C 1009 hPa NW 18.3 km/h 37.8 km/h 82% 0.76 mm
15:03 10.6 °C 8.5 °C 1009.4 hPa NW 12.2 km/h 37.8 km/h 87% 1.52 mm
15:04 10 °C 8.4 °C 1009 hPa NW 15.8 km/h 37.8 km/h 90% 1.52 mm
15:05 9.8 °C 8.6 °C 1009.4 hPa NNW 23.3 km/h 37.8 km/h 92% 2.03 mm
15:06 9.5 °C 8.4 °C 1009 hPa NNW 19.5 km/h 37.8 km/h 93% 2.03 mm
15:07 9.2 °C 8.3 °C 1009 hPa NW 18.3 km/h 37.8 km/h 94% 2.03 mm
15:08 8.8 °C 8.2 °C 1009 hPa NW 20.9 km/h 37.8 km/h 96% 2.29 mm
15:09 8.7 °C 8.1 °C 1009 hPa NW 19.5 km/h 37.8 km/h 96% 2.29 mm
15:11 8.4 °C 8 °C 1009 hPa WNW 11.1 km/h 37.8 km/h 97% 2.54 mm
15:12 8.3 °C 8.1 °C 1009 hPa WNW 15.8 km/h 37.8 km/h 98% 2.54 mm
15:13 8.2 °C 8.1 °C 1009 hPa WNW 13.4 km/h 37.8 km/h 99% 2.54 mm
15:14 8.1 °C 8 °C 1009 hPa NW 12.2 km/h 37.8 km/h 99% 2.54 mm
15:15 8.1 °C 8 °C 1009 hPa WNW 12.2 km/h 36.7 km/h 99% 2.54 mm
15:16 8.1 °C 7.9 °C 1009 hPa WNW 15.8 km/h 36.7 km/h 99% 3.05 mm
15:17 8.1 °C 7.9 °C 1009.4 hPa WNW 18.3 km/h 36.7 km/h 99% 3.05 mm
15:19 7.9 °C 7.8 °C 1009.4 hPa NW 18.3 km/h 36.7 km/h 99% 3.05 mm
15:20 7.9 °C 7.8 °C 1009.4 hPa WNW 14.8 km/h 36.7 km/h 99% 3.3 mm
15:21 7.9 °C 7.8 °C 1009.4 hPa WNW 14.8 km/h 36.7 km/h 99% 3.3 mm
15:22 7.8 °C 7.7 °C 1009.4 hPa WNW 23.3 km/h 33.2 km/h 99% 3.3 mm
15:23 7.8 °C 7.7 °C 1009.4 hPa WNW 18.3 km/h 34.3 km/h 99% 3.3 mm
15:24 7.7 °C 7.6 °C 1009.4 hPa WNW 12.2 km/h 34.3 km/h 99% 3.56 mm
15:25 7.7 °C 7.6 °C 1009.4 hPa West 18.3 km/h 34.3 km/h 99% 3.56 mm
15:26 7.7 °C 7.6 °C 1009.4 hPa West 11.1 km/h 34.3 km/h 99% 3.56 mm
15:28 7.7 °C 7.6 °C 1009.4 hPa WNW 13.4 km/h 34.3 km/h 99% 4.06 mm
15:29 7.7 °C 7.6 °C 1009.4 hPa WNW 7.2 km/h 34.3 km/h 99% 4.06 mm
15:30 7.7 °C 7.6 °C 1009 hPa WNW 13.4 km/h 34.3 km/h 99% 4.06 mm
15:31 7.7 °C 7.6 °C 1009.4 hPa WNW 17.2 km/h 34.3 km/h 99% 4.32 mm
15:32 7.7 °C 7.6 °C 1009.4 hPa WNW 9.7 km/h 34.3 km/h 99% 4.32 mm
15:34 7.7 °C 7.6 °C 1009.4 hPa West 9.7 km/h 29.5 km/h 99% 4.32 mm
15:36 7.8 °C 7.7 °C 1009.4 hPa West 9.7 km/h 29.5 km/h 99% 4.57 mm
15:37 7.8 °C 7.7 °C 1009.4 hPa West 7.2 km/h 29.5 km/h 99% 4.57 mm
15:39 7.8 °C 7.7 °C 1009.4 hPa WNW 14.8 km/h 29.5 km/h 99% 4.57 mm
15:41 7.7 °C 7.6 °C 1009.4 hPa West 12.2 km/h 28 km/h 99% 4.83 mm
15:42 7.7 °C 7.6 °C 1009.4 hPa West 12.2 km/h 28 km/h 99% 4.83 mm
15:43 7.7 °C 7.5 °C 1009.4 hPa West 11.1 km/h 25.6 km/h 99% 4.83 mm
15:45 7.7 °C 7.5 °C 1009.4 hPa NW 12.2 km/h 25.6 km/h 99% 5.33 mm
15:46 7.7 °C 7.5 °C 1009.4 hPa NW 13.4 km/h 28 km/h 99% 5.33 mm
15:47 7.6 °C 7.4 °C 1009.4 hPa NW 12.2 km/h 28 km/h 99% 5.33 mm
15:48 7.6 °C 7.4 °C 1009.4 hPa NW 11.1 km/h 28 km/h 99% 5.59 mm
15:50 7.4 °C 7.3 °C 1009.4 hPa NW 9.7 km/h 28 km/h 99% 5.59 mm
15:51 7.4 °C 7.3 °C 1009.4 hPa NW 9.7 km/h 28 km/h 99% 5.59 mm
15:52 7.4 °C 7.3 °C 1009 hPa NW 9.7 km/h 28 km/h 99% 5.59 mm
15:53 7.4 °C 7.3 °C 1009 hPa West 13.4 km/h 28 km/h 99% 5.84 mm
15:54 7.4 °C 7.3 °C 1009 hPa West 13.4 km/h 28 km/h 99% 5.84 mm
15:55 7.3 °C 7.2 °C 1008.7 hPa West 9.7 km/h 28 km/h 99% 5.84 mm
15:56 7.3 °C 7.2 °C 1008.7 hPa WSW 9.7 km/h 28 km/h 99% 5.84 mm
15:57 7.3 °C 7.2 °C 1008.4 hPa West 7.2 km/h 21.9 km/h 99% 5.84 mm
15:58 7.3 °C 7.2 °C 1008.4 hPa West 5 km/h 21.9 km/h 99% 5.84 mm
15:59 7.3 °C 7.2 °C 1008.4 hPa South 5 km/h 20.9 km/h 99% 5.59 mm
16:00 7.3 °C 7.2 °C 1008.4 hPa ESE 6.1 km/h 20.9 km/h 99% 5.59 mm
16:01 7.3 °C 7.2 °C 1008 hPa ENE 5 km/h 20.9 km/h 99% 4.83 mm
16:03 7.3 °C 7.2 °C 1008.4 hPa ENE 6.1 km/h 20.9 km/h 99% 4.32 mm
16:04 7.4 °C 7.3 °C 1008.4 hPa ENE 5 km/h 18.3 km/h 99% 4.32 mm
16:05 7.4 °C 7.3 °C 1008.4 hPa ESE 3.5 km/h 14.8 km/h 99% 4.06 mm
16:07 7.4 °C 7.3 °C 1008.4 hPa SE 2.6 km/h 14.8 km/h 99% 4.06 mm
16:08 7.4 °C 7.3 °C 1008.4 hPa Calm   12.2 km/h 99% 3.56 mm
16:10 7.7 °C 7.6 °C 1008 hPa SE 1.1 km/h 12.2 km/h 99% 3.3 mm
16:13 7.9 °C 7.8 °C 1008 hPa SSE 3.5 km/h 9.7 km/h 99% 3.3 mm
16:15 7.9 °C 7.8 °C 1008.4 hPa SSE 2.6 km/h 8.7 km/h 99% 3.3 mm
16:16 7.9 °C 7.8 °C 1008.4 hPa SSE 3.5 km/h 8.7 km/h 99% 3.05 mm
16:17 7.9 °C 7.8 °C 1008.4 hPa SSE 3.5 km/h 8.7 km/h 99% 3.05 mm
16:18 7.8 °C 7.7 °C 1008.4 hPa SSE 6.1 km/h 9.7 km/h 99% 3.05 mm
16:19 7.8 °C 7.7 °C 1008.7 hPa SSE 6.1 km/h 13.4 km/h 99% 3.05 mm
16:20 7.8 °C 7.7 °C 1008.4 hPa South 6.1 km/h 13.4 km/h 99% 2.54 mm
16:21 7.8 °C 7.7 °C 1008.4 hPa South 5 km/h 13.4 km/h 99% 2.54 mm
16:22 7.9 °C 7.8 °C 1008.7 hPa South 6.1 km/h 13.4 km/h 99% 2.54 mm
16:24 7.9 °C 7.8 °C 1008.7 hPa South 7.2 km/h 13.4 km/h 99% 2.29 mm
16:25 7.8 °C 7.7 °C 1008.7 hPa South 3.5 km/h 13.4 km/h 99% 2.29 mm
16:26 7.8 °C 7.7 °C 1008.7 hPa South 3.5 km/h 13.4 km/h 99% 2.29 mm
16:27 7.9 °C 7.8 °C 1009 hPa South 1.1 km/h 13.4 km/h 99% 2.03 mm
16:30 8.1 °C 8 °C 1009 hPa South 1.1 km/h 13.4 km/h 99% 1.52 mm
16:31 8.1 °C 8 °C 1009 hPa South 1.1 km/h 12.2 km/h 99% 1.52 mm
16:32 8.2 °C 8.1 °C 1009 hPa SSE 1.1 km/h 12.2 km/h 99% 1.52 mm
16:35 8.2 °C 8.1 °C 1009 hPa South 3.5 km/h 8.7 km/h 99% 1.27 mm
16:36 8.2 °C 8.1 °C 1009 hPa South 7.2 km/h 9.7 km/h 99% 1.27 mm
16:37 8.2 °C 8.1 °C 1009 hPa South 7.2 km/h 9.7 km/h 99% 1.27 mm
16:38 8.2 °C 8.1 °C 1009 hPa South 3.5 km/h 9.7 km/h 99% 1.27 mm
16:40 8.3 °C 8.2 °C 1009 hPa South 7.2 km/h 9.7 km/h 99% 1.02 mm
16:41 8.2 °C 8.1 °C 1009 hPa South 6.1 km/h 9.7 km/h 99% 1.02 mm
16:42 8.3 °C 8.2 °C 1009 hPa South 6.1 km/h 9.7 km/h 99% 1.02 mm
16:44 8.3 °C 8.2 °C 1009 hPa South 5 km/h 9.7 km/h 99% 1.02 mm
16:45 8.4 °C 8.3 °C 1009 hPa South 3.5 km/h 11.1 km/h 99% 0.76 mm
16:46 8.4 °C 8.3 °C 1009 hPa South 7.2 km/h 11.1 km/h 99% 0.76 mm
16:47 8.4 °C 8.3 °C 1009 hPa South 3.5 km/h 11.1 km/h 99% 0.25 mm
16:49 8.6 °C 8.5 °C 1009.4 hPa South 6.1 km/h 11.1 km/h 99% 0.25 mm
16:50 8.6 °C 8.5 °C 1009 hPa South 6.1 km/h 11.1 km/h 99% 0.25 mm
16:51 8.7 °C 8.6 °C 1009.4 hPa South 5 km/h 11.1 km/h 99% 0.25 mm
16:52 8.7 °C 8.6 °C 1009.4 hPa South 5 km/h 11.1 km/h 99% 0.25 mm
16:55 8.8 °C 8.7 °C 1009 hPa SSW 5 km/h 11.1 km/h 99% 0 mm
16:56 8.8 °C 8.7 °C 1009 hPa SW 5 km/h 11.1 km/h 99% 0 mm
16:57 8.9 °C 8.8 °C 1009 hPa SW 5 km/h 11.1 km/h 99% 0 mm
16:58 8.9 °C 8.8 °C 1009 hPa SW 5 km/h 11.1 km/h 99% 0 mm
17:00 9.1 °C 8.9 °C 1009 hPa NW 7.2 km/h 13.4 km/h 99% 0 mm
17:01 9 °C 8.9 °C 1009.4 hPa NNW 5 km/h 13.4 km/h 99% 0 mm
17:02 9 °C 8.9 °C 1009.4 hPa NNW 5 km/h 13.4 km/h 99% 0 mm
17:03 9.1 °C 8.9 °C 1009 hPa NNW 3.5 km/h 13.4 km/h 99% 0 mm
17:04 9.1 °C 8.9 °C 1009.4 hPa NNW 3.5 km/h 13.4 km/h 99% 0 mm
17:05 9.1 °C 8.9 °C 1009.4 hPa NW 9.7 km/h 13.4 km/h 99% 0 mm
17:07 9.1 °C 8.8 °C 1009.4 hPa WSW 6.1 km/h 13.4 km/h 98% 0 mm
17:08 9.1 °C 8.8 °C 1009.4 hPa WSW 6.1 km/h 13.4 km/h 98% 0 mm
17:09 9.1 °C 8.8 °C 1009.4 hPa West 5 km/h 13.4 km/h 98% 0 mm
17:10 9.2 °C 8.8 °C 1009.4 hPa WSW 3.5 km/h 13.4 km/h 97% 0 mm
17:13 9.2 °C 8.8 °C 1009.4 hPa West 3.5 km/h 13.4 km/h 97% 0 mm
17:14 9.3 °C 8.7 °C 1009.7 hPa West 5 km/h 13.4 km/h 96% 0 mm
17:15 9.3 °C 8.7 °C 1009.7 hPa West 5 km/h 13.4 km/h 96% 0 mm
17:16 9.3 °C 8.6 °C 1009.4 hPa WSW 5 km/h 12.2 km/h 95% 0 mm
17:18 9.3 °C 8.4 °C 1009.4 hPa SW 7.2 km/h 11.1 km/h 94% 0 mm
17:19 9.3 °C 8.1 °C 1009.4 hPa SW 5 km/h 12.2 km/h 92% 0 mm
17:20 9.3 °C 8.1 °C 1009.4 hPa WSW 5 km/h 12.2 km/h 92% 0 mm
17:21 9.3 °C 8.1 °C 1009.7 hPa West 7.2 km/h 15.8 km/h 92% 0 mm
17:23 9.2 °C 7.7 °C 1009.7 hPa WNW 7.2 km/h 15.8 km/h 90% 0 mm
17:25 9.2 °C 7.7 °C 1009.7 hPa WNW 3.5 km/h 15.8 km/h 90% 0 mm
17:26 9.1 °C 7.7 °C 1009.7 hPa NW 5 km/h 15.8 km/h 91% 0 mm
17:29 9.1 °C 7.6 °C 1009.7 hPa NW 8.7 km/h 15.8 km/h 90% 0 mm
17:30 9.1 °C 7.6 °C 1009.7 hPa NW 9.7 km/h 15.8 km/h 90% 0 mm
17:31 9 °C 7.4 °C 1009.7 hPa NW 8.7 km/h 18.3 km/h 90% 0 mm
17:32 9 °C 7.4 °C 1009.7 hPa NW 7.2 km/h 18.3 km/h 90% 0 mm
17:34 9 °C 7.4 °C 1009.7 hPa NNW 5 km/h 18.3 km/h 90% 0 mm
17:35 9 °C 7.6 °C 1009.7 hPa NNW 3.5 km/h 18.3 km/h 91% 0 mm
17:36 9 °C 7.6 °C 1009.7 hPa NNW 7.2 km/h 18.3 km/h 91% 0 mm
17:37 8.9 °C 7.6 °C 1009.7 hPa NW 3.5 km/h 18.3 km/h 91% 0 mm
17:40 8.9 °C 7.6 °C 1010 hPa NW 6.1 km/h 18.3 km/h 91% 0 mm
17:41 8.9 °C 7.6 °C 1010 hPa WNW 6.1 km/h 18.3 km/h 91% 0 mm
17:43 8.8 °C 7.4 °C 1009.7 hPa West 6.1 km/h 15.8 km/h 91% 0 mm
17:46 8.8 °C 7.6 °C 1009.7 hPa Calm   15.8 km/h 92% 0 mm
17:47 8.8 °C 7.6 °C 1009.7 hPa WNW 2.6 km/h 15.8 km/h 92% 0 mm
17:49 8.8 °C 7.6 °C 1010 hPa West 3.5 km/h 13.4 km/h 92% 0 mm
17:51 8.7 °C 7.5 °C 1010 hPa WNW 5 km/h 13.4 km/h 92% 0 mm
17:52 8.7 °C 7.5 °C 1010 hPa WNW 5 km/h 13.4 km/h 92% 0 mm
17:53 8.7 °C 7.7 °C 1010 hPa WNW 3.5 km/h 9.7 km/h 93% 0 mm
17:54 8.7 °C 7.7 °C 1009.7 hPa West 2.6 km/h 9.7 km/h 93% 0 mm
17:56 8.6 °C 7.6 °C 1010 hPa SSW 5 km/h 9.7 km/h 93% 0 mm
17:57 8.6 °C 7.6 °C 1010 hPa SW 3.5 km/h 9.7 km/h 93% 0 mm
17:58 8.6 °C 7.6 °C 1010 hPa North 5 km/h 9.7 km/h 93% 0 mm
18:01 8.6 °C 7.6 °C 1009.7 hPa WNW 3.5 km/h 14.8 km/h 93% 0 mm
18:02 8.5 °C 7.4 °C 1010 hPa WNW 5 km/h 14.8 km/h 93% 0 mm
18:03 8.5 °C 7.4 °C 1010 hPa WSW 8.7 km/h 17.2 km/h 93% 0 mm
18:04 8.4 °C 7.4 °C 1010 hPa SW 5 km/h 17.2 km/h 93% 0 mm
18:06 8.5 °C 7.3 °C 1010 hPa NNW 13.4 km/h 19.5 km/h 92% 0 mm
18:07 8.5 °C 7.3 °C 1010 hPa NNW 8.7 km/h 19.5 km/h 92% 0 mm
18:09 8.5 °C 7.3 °C 1010 hPa NNW 5 km/h 19.5 km/h 92% 0 mm
18:10 8.5 °C 7.2 °C 1010 hPa NNW 5 km/h 19.5 km/h 91% 0 mm
18:11 8.5 °C 7.3 °C 1010 hPa WNW 5 km/h 19.5 km/h 92% 0 mm
18:12 8.5 °C 7.3 °C 1010 hPa WNW 5 km/h 19.5 km/h 92% 0 mm
18:14 8.5 °C 7.2 °C 1010 hPa NW 6.1 km/h 19.5 km/h 91% 0 mm
18:15 8.5 °C 7.2 °C 1010 hPa NW 3.5 km/h 19.5 km/h 91% 0 mm
18:17 8.5 °C 7.2 °C 1010 hPa West 2.6 km/h 15.8 km/h 91% 0 mm
18:19 8.5 °C 7.2 °C 1010 hPa West 7.2 km/h 13.4 km/h 91% 0 mm
18:21 8.5 °C 7.2 °C 1010 hPa West 2.6 km/h 13.4 km/h 91% 0 mm
18:22 8.5 °C 7.2 °C 1010 hPa West 8.7 km/h 17.2 km/h 91% 0 mm
18:23 8.5 °C 7 °C 1010 hPa West 8.7 km/h 17.2 km/h 90% 0 mm
18:25 8.5 °C 7 °C 1010 hPa West 3.5 km/h 18.3 km/h 90% 0 mm
18:26 8.4 °C 6.7 °C 1010 hPa West 8.7 km/h 18.3 km/h 89% 0 mm
18:27 8.4 °C 6.7 °C 1010 hPa West 8.7 km/h 18.3 km/h 89% 0 mm
18:28 8.4 °C 6.7 °C 1010 hPa West 5 km/h 18.3 km/h 89% 0 mm
18:30 8.4 °C 6.7 °C 1010.4 hPa West 5 km/h 18.3 km/h 89% 0 mm
18:31 8.4 °C 6.7 °C 1010 hPa West 5 km/h 18.3 km/h 89% 0 mm
18:32 8.4 °C 6.7 °C 1010.4 hPa West 7.2 km/h 18.3 km/h 89% 0 mm
18:33 8.4 °C 6.7 °C 1010 hPa West 6.1 km/h 18.3 km/h 89% 0 mm
18:34 8.4 °C 6.9 °C 1010 hPa WNW 6.1 km/h 15.8 km/h 90% 0 mm
18:36 8.4 °C 6.9 °C 1010 hPa WNW 9.7 km/h 15.8 km/h 90% 0 mm
18:37 8.4 °C 6.9 °C 1010.4 hPa WNW 5 km/h 15.8 km/h 90% 0 mm
18:38 8.3 °C 6.8 °C 1010.4 hPa WNW 6.1 km/h 15.8 km/h 90% 0 mm
18:39 8.3 °C 6.8 °C 1010.4 hPa WNW 5 km/h 15.8 km/h 90% 0 mm
18:41 8.3 °C 6.8 °C 1010 hPa WNW 3.5 km/h 15.8 km/h 90% 0 mm
18:43 8.3 °C 6.8 °C 1010.4 hPa WNW 6.1 km/h 15.8 km/h 90% 0 mm
18:44 8.3 °C 6.8 °C 1010.4 hPa WNW 7.2 km/h 15.8 km/h 90% 0 mm
18:45 8.2 °C 6.7 °C 1010.4 hPa WNW 3.5 km/h 15.8 km/h 90% 0 mm
18:46 8.2 °C 6.8 °C 1010.4 hPa WNW 5 km/h 13.4 km/h 91% 0 mm
18:48 8.2 °C 6.8 °C 1010.4 hPa West 5 km/h 13.4 km/h 91% 0 mm
18:49 8.1 °C 6.6 °C 1010.4 hPa West 7.2 km/h 13.4 km/h 90% 0 mm
18:50 8.1 °C 6.6 °C 1010.4 hPa West 5 km/h 13.4 km/h 90% 0 mm
18:51 8.1 °C 6.6 °C 1010.4 hPa West 6.1 km/h 13.4 km/h 90% 0 mm
18:53 8.1 °C 6.6 °C 1010.7 hPa West 6.1 km/h 13.4 km/h 90% 0 mm
18:54 8.1 °C 6.5 °C 1010.4 hPa West 6.1 km/h 12.2 km/h 90% 0 mm
18:55 8.1 °C 6.6 °C 1010.4 hPa West 3.5 km/h 12.2 km/h 90% 0 mm
18:56 8.1 °C 6.6 °C 1010.4 hPa WSW 3.5 km/h 12.2 km/h 90% 0 mm
18:57 8.1 °C 6.5 °C 1010.7 hPa WSW 3.5 km/h 12.2 km/h 90% 0 mm
18:58 8.1 °C 6.5 °C 1010.7 hPa West 2.6 km/h 12.2 km/h 90% 0 mm
18:59 8.1 °C 6.7 °C 1010.7 hPa West 5 km/h 12.2 km/h 91% 0 mm
19:01 8.1 °C 6.7 °C 1010.7 hPa West 3.5 km/h 12.2 km/h 91% 0 mm
19:02 7.9 °C 6.6 °C 1010.7 hPa West 2.6 km/h 12.2 km/h 91% 0 mm
19:04 8.1 °C 6.7 °C 1010.7 hPa West 3.5 km/h 12.2 km/h 91% 0 mm
19:05 7.9 °C 6.6 °C 1010.7 hPa West 2.6 km/h 9.7 km/h 91% 0 mm
19:06 7.9 °C 6.6 °C 1010.7 hPa West 2.6 km/h 9.7 km/h 91% 0 mm
19:07 7.9 °C 6.6 °C 1010.7 hPa West 3.5 km/h 9.7 km/h 91% 0 mm
19:09 7.8 °C 6.4 °C 1011.1 hPa West 2.6 km/h 9.7 km/h 91% 0 mm
19:10 7.8 °C 6.4 °C 1011.1 hPa West 2.6 km/h 9.7 km/h 91% 0 mm
19:11 7.8 °C 6.4 °C 1011.1 hPa West 1.1 km/h 9.7 km/h 91% 0 mm
19:12 7.8 °C 6.4 °C 1011.1 hPa West 3.5 km/h 8.7 km/h 91% 0 mm
19:13 7.8 °C 6.6 °C 1010.7 hPa West 1.1 km/h 8.7 km/h 92% 0 mm
19:14 7.8 °C 6.4 °C 1011.1 hPa West 1.1 km/h 8.7 km/h 91% 0 mm
19:15 7.8 °C 6.4 °C 1011.1 hPa West 1.1 km/h 8.7 km/h 91% 0 mm
19:16 7.8 °C 6.6 °C 1011.1 hPa West 2.6 km/h 8.7 km/h 92% 0 mm
19:17 7.8 °C 6.6 °C 1011.1 hPa Calm   8.7 km/h 92% 0 mm
19:19 7.7 °C 6.5 °C 1010.7 hPa WNW 2.6 km/h 7.2 km/h 92% 0 mm
19:20 7.7 °C 6.5 °C 1010.7 hPa WNW 1.1 km/h 7.2 km/h 92% 0 mm
19:21 7.7 °C 6.5 °C 1011.1 hPa Calm   7.2 km/h 92% 0 mm
19:22 7.7 °C 6.5 °C 1011.1 hPa WNW 1.1 km/h 7.2 km/h 92% 0 mm
19:24 7.7 °C 6.5 °C 1011.1 hPa NW 3.5 km/h 8.7 km/h 92% 0 mm
19:25 7.7 °C 6.5 °C 1010.7 hPa NW 2.6 km/h 8.7 km/h 92% 0 mm
19:26 7.7 °C 6.5 °C 1011.1 hPa NW 3.5 km/h 9.7 km/h 92% 0 mm
19:27 7.7 °C 6.5 °C 1010.7 hPa NW 2.6 km/h 9.7 km/h 92% 0 mm
19:28 7.7 °C 6.7 °C 1011.1 hPa WNW 3.5 km/h 9.7 km/h 93% 0 mm
19:30 7.7 °C 6.7 °C 1011.1 hPa WNW 3.5 km/h 9.7 km/h 93% 0 mm
19:31 7.8 °C 6.8 °C 1011.1 hPa WNW 6.1 km/h 14.8 km/h 93% 0 mm
19:32 7.8 °C 6.8 °C 1011.1 hPa WNW 3.5 km/h 14.8 km/h 93% 0 mm
19:34 7.8 °C 6.9 °C 1011.1 hPa WNW 5 km/h 14.8 km/h 94% 0 mm
19:35 7.8 °C 6.9 °C 1011.1 hPa WNW 5 km/h 14.8 km/h 94% 0 mm
19:36 7.9 °C 7.1 °C 1011.1 hPa WNW 1.1 km/h 14.8 km/h 94% 0 mm
19:37 7.9 °C 7.1 °C 1011.1 hPa WNW 1.1 km/h 14.8 km/h 94% 0 mm
19:40 7.9 °C 7.1 °C 1011.1 hPa WNW 2.6 km/h 14.8 km/h 94% 0 mm
19:42 7.9 °C 7.1 °C 1011.1 hPa Calm   13.4 km/h 94% 0 mm
19:43 7.9 °C 7.1 °C 1011.1 hPa Calm   13.4 km/h 94% 0 mm
19:45 8.1 °C 7.1 °C 1011.4 hPa Calm   6.1 km/h 94% 0 mm
19:46 7.9 °C 7.1 °C 1011.1 hPa South 2.6 km/h 6.1 km/h 94% 0 mm
19:47 8.1 °C 7.3 °C 1011.4 hPa SSW 3.5 km/h 7.2 km/h 95% 0 mm
19:48 7.9 °C 7.2 °C 1011.4 hPa SSW 1.1 km/h 7.2 km/h 95% 0 mm
19:51 8.1 °C 7.4 °C 1011.4 hPa West 6.1 km/h 9.7 km/h 96% 0 mm
19:52 8.1 °C 7.4 °C 1011.4 hPa WNW 2.6 km/h 9.7 km/h 96% 0 mm
19:53 8.1 °C 7.4 °C 1011.4 hPa WNW 2.6 km/h 9.7 km/h 96% 0 mm
19:54 8.1 °C 7.4 °C 1011.4 hPa NW 3.5 km/h 9.7 km/h 96% 0 mm
19:55 8.1 °C 7.6 °C 1011.4 hPa NW 2.6 km/h 9.7 km/h 97% 0 mm
19:56 8.1 °C 7.6 °C 1011.4 hPa NW 2.6 km/h 9.7 km/h 97% 0 mm
19:58 8.1 °C 7.7 °C 1011.7 hPa NW 3.5 km/h 11.1 km/h 97% 0 mm
19:59 8.1 °C 7.7 °C 1011.7 hPa NW 5 km/h 11.1 km/h 97% 0 mm
20:01 8.1 °C 7.7 °C 1011.7 hPa WSW 6.1 km/h 11.1 km/h 97% 0 mm
20:03 8.1 °C 7.8 °C 1011.7 hPa SW 5 km/h 11.1 km/h 98% 0 mm
20:04 8.1 °C 7.7 °C 1011.7 hPa SW 5 km/h 11.1 km/h 97% 0 mm
20:05 8.1 °C 7.7 °C 1011.7 hPa SW 3.5 km/h 11.1 km/h 97% 0 mm
20:06 8.1 °C 7.8 °C 1011.7 hPa SW 3.5 km/h 11.1 km/h 98% 0 mm
20:08 8.1 °C 7.8 °C 1011.7 hPa WSW 3.5 km/h 11.1 km/h 98% 0 mm
20:09 8.1 °C 7.8 °C 1011.7 hPa WSW 3.5 km/h 11.1 km/h 98% 0 mm
20:10 8.1 °C 7.8 °C 1011.7 hPa WSW 2.6 km/h 11.1 km/h 98% 0 mm
20:12 8.2 °C 7.9 °C 1011.7 hPa West 5 km/h 11.1 km/h 98% 0 mm
20:13 8.2 °C 7.9 °C 1011.7 hPa West 2.6 km/h 11.1 km/h 98% 0 mm
20:14 8.1 °C 7.8 °C 1011.7 hPa West 3.5 km/h 11.1 km/h 98% 0 mm
20:15 8.1 °C 7.8 °C 1011.7 hPa West 5 km/h 11.1 km/h 98% 0 mm
20:16 8.1 °C 7.8 °C 1011.7 hPa West 5 km/h 11.1 km/h 98% 0 mm
20:17 8.1 °C 7.8 °C 1011.7 hPa West 5 km/h 9.7 km/h 98% 0 mm
20:19 8.1 °C 7.8 °C 1011.7 hPa WNW 5 km/h 9.7 km/h 98% 0 mm
20:21 8.1 °C 7.8 °C 1011.7 hPa NW 5 km/h 15.8 km/h 98% 0 mm
20:22 8.1 °C 7.8 °C 1012.1 hPa NW 2.6 km/h 15.8 km/h 98% 0 mm
20:24 8.2 °C 7.9 °C 1012.1 hPa NW 5 km/h 15.8 km/h 98% 0 mm
20:26 8.1 °C 7.8 °C 1012.1 hPa NW 3.5 km/h 15.8 km/h 98% 0 mm
20:27 8.2 °C 7.9 °C 1011.7 hPa NW 1.1 km/h 15.8 km/h 98% 0 mm
20:29 8.2 °C 7.9 °C 1011.7 hPa WNW 1.1 km/h 15.8 km/h 98% 0 mm
20:30 8.2 °C 7.9 °C 1012.1 hPa WNW 2.6 km/h 15.8 km/h 98% 0 mm
20:31 8.2 °C 7.9 °C 1012.1 hPa West 3.5 km/h 13.4 km/h 98% 0 mm
20:33 8.2 °C 7.9 °C 1012.1 hPa WNW 7.2 km/h 11.1 km/h 98% 0 mm
20:34 8.2 °C 7.9 °C 1012.1 hPa WNW 1.1 km/h 11.1 km/h 98% 0 mm
20:35 8.2 °C 7.9 °C 1012.1 hPa NW 8.7 km/h 11.1 km/h 98% 0 mm
20:36 8.2 °C 7.9 °C 1012.1 hPa NW 8.7 km/h 11.1 km/h 98% 0 mm
20:38 8.2 °C 8.1 °C 1012.1 hPa NW 3.5 km/h 11.1 km/h 99% 0 mm
20:39 8.2 °C 8.1 °C 1012.1 hPa NW 3.5 km/h 11.1 km/h 99% 0 mm
20:40 8.2 °C 7.9 °C 1012.1 hPa NNW 2.6 km/h 11.1 km/h 98% 0 mm
20:41 8.2 °C 7.9 °C 1012.1 hPa NNW 1.1 km/h 11.1 km/h 98% 0 mm
20:42 8.2 °C 7.9 °C 1012.1 hPa NNW 2.6 km/h 11.1 km/h 98% 0 mm
20:43 8.2 °C 8.1 °C 1012.1 hPa NW 3.5 km/h 11.1 km/h 99% 0 mm
20:44 8.2 °C 8.1 °C 1012.1 hPa NW 3.5 km/h 11.1 km/h 99% 0 mm
20:46 8.3 °C 8.2 °C 1012.1 hPa NW 2.6 km/h 8.7 km/h 99% 0 mm
20:47 8.3 °C 8.2 °C 1012.1 hPa NW 2.6 km/h 8.7 km/h 99% 0 mm
20:49 8.3 °C 8.2 °C 1012.1 hPa NW 3.5 km/h 8.7 km/h 99% 0 mm
20:52 8.3 °C 8.2 °C 1012.1 hPa WNW 6.1 km/h 9.7 km/h 99% 0 mm
20:53 8.3 °C 8.2 °C 1012.1 hPa West 1.1 km/h 9.7 km/h 99% 0 mm
20:54 8.3 °C 8.2 °C 1012.1 hPa West 1.1 km/h 9.7 km/h 99% 0 mm
20:57 8.4 °C 8.3 °C 1012.1 hPa West 2.6 km/h 9.7 km/h 99% 0 mm
20:58 8.3 °C 8.2 °C 1012.1 hPa Calm   9.7 km/h 99% 0 mm
20:59 8.4 °C 8.3 °C 1012.1 hPa WSW 2.6 km/h 9.7 km/h 99% 0 mm
21:02 8.4 °C 8.3 °C 1012.1 hPa West 1.1 km/h 8.7 km/h 99% 0 mm
21:04 8.4 °C 8.3 °C 1012.1 hPa WNW 2.6 km/h 8.7 km/h 99% 0 mm
21:05 8.4 °C 8.3 °C 1012.1 hPa West 2.6 km/h 8.7 km/h 99% 0 mm
21:07 8.4 °C 8.3 °C 1012.1 hPa West 2.6 km/h 8.7 km/h 99% 0 mm
21:08 8.4 °C 8.3 °C 1012.1 hPa West 3.5 km/h 11.1 km/h 99% 0 mm
21:10 8.5 °C 8.4 °C 1012.1 hPa WSW 5 km/h 11.1 km/h 99% 0 mm
21:11 8.5 °C 8.4 °C 1012.1 hPa WSW 5 km/h 11.1 km/h 99% 0 mm
21:13 8.5 °C 8.4 °C 1012.4 hPa WSW 3.5 km/h 11.1 km/h 99% 0 mm
21:14 8.5 °C 8.4 °C 1012.1 hPa WSW 7.2 km/h 11.1 km/h 99% 0 mm
21:15 8.5 °C 8.4 °C 1012.1 hPa WSW 3.5 km/h 11.1 km/h 99% 0 mm
21:17 8.5 °C 8.4 °C 1012.1 hPa West 5 km/h 11.1 km/h 99% 0 mm
21:18 8.5 °C 8.4 °C 1012.4 hPa West 7.2 km/h 15.8 km/h 99% 0 mm
21:20 8.6 °C 8.5 °C 1012.4 hPa West 1.1 km/h 15.8 km/h 99% 0 mm
21:22 8.6 °C 8.5 °C 1012.1 hPa West 5 km/h 15.8 km/h 99% 0 mm
21:23 8.6 °C 8.5 °C 1012.1 hPa West 2.6 km/h 15.8 km/h 99% 0 mm
21:25 8.6 °C 8.5 °C 1012.4 hPa West 5 km/h 15.8 km/h 99% 0 mm
21:26 8.6 °C 8.5 °C 1012.4 hPa West 3.5 km/h 15.8 km/h 99% 0 mm
21:27 8.6 °C 8.5 °C 1012.4 hPa WNW 8.7 km/h 15.8 km/h 99% 0 mm
21:28 8.6 °C 8.5 °C 1012.4 hPa WNW 5 km/h 12.2 km/h 99% 0 mm
21:31 8.6 °C 8.5 °C 1012.4 hPa WNW 3.5 km/h 12.2 km/h 99% 0 mm
21:32 8.6 °C 8.5 °C 1012.4 hPa NW 2.6 km/h 12.2 km/h 99% 0 mm
21:33 8.6 °C 8.5 °C 1012.4 hPa NW 2.6 km/h 12.2 km/h 99% 0 mm
21:34 8.6 °C 8.5 °C 1012.4 hPa NW 2.6 km/h 12.2 km/h 99% 0 mm
21:36 8.6 °C 8.5 °C 1012.4 hPa West 2.6 km/h 12.2 km/h 99% 0 mm
21:37 8.6 °C 8.5 °C 1012.4 hPa West 2.6 km/h 12.2 km/h 99% 0 mm
21:38 8.5 °C 8.4 °C 1012.4 hPa WSW 1.1 km/h 12.2 km/h 99% 0 mm
21:39 8.5 °C 8.4 °C 1012.4 hPa Calm   7.2 km/h 99% 0 mm
21:42 8.5 °C 8.4 °C 1012.1 hPa Calm   6.1 km/h 99% 0 mm
21:43 8.5 °C 8.4 °C 1012.4 hPa Calm   6.1 km/h 99% 0 mm
21:44 8.4 °C 8.3 °C 1012.4 hPa Calm   6.1 km/h 99% 0 mm
21:45 8.4 °C 8.3 °C 1012.4 hPa SW 1.1 km/h 6.1 km/h 99% 0 mm
21:46 8.4 °C 8.3 °C 1012.4 hPa West 3.5 km/h 6.1 km/h 99% 0 mm
21:47 8.4 °C 8.3 °C 1012.4 hPa NNW 3.5 km/h 6.1 km/h 99% 0 mm
21:48 8.3 °C 8.2 °C 1012.8 hPa NNW 1.1 km/h 6.1 km/h 99% 0 mm
21:49 8.3 °C 8.2 °C 1012.4 hPa WNW 3.5 km/h 9.7 km/h 99% 0 mm
21:51 8.3 °C 8.2 °C 1012.8 hPa WNW 1.1 km/h 9.7 km/h 99% 0 mm
21:52 8.3 °C 8.2 °C 1012.4 hPa WNW 1.1 km/h 9.7 km/h 99% 0 mm
21:53 8.2 °C 8.1 °C 1012.4 hPa WNW 1.1 km/h 9.7 km/h 99% 0 mm
21:55 8.2 °C 8.1 °C 1012.8 hPa Calm   9.7 km/h 99% 0 mm
21:57 8.1 °C 8 °C 1012.8 hPa West 1.1 km/h 9.7 km/h 99% 0 mm
21:58 8.1 °C 8 °C 1012.8 hPa WSW 2.6 km/h 9.7 km/h 99% 0 mm
21:59 8.1 °C 8 °C 1012.4 hPa West 1.1 km/h 9.7 km/h 99% 0 mm
22:00 8.1 °C 8 °C 1012.8 hPa Calm   8.7 km/h 99% 0 mm
22:02 8.1 °C 8 °C 1012.8 hPa Calm   6.1 km/h 99% 0 mm
22:03 8.1 °C 8 °C 1012.4 hPa Calm   6.1 km/h 99% 0 mm
22:04 8.1 °C 8 °C 1012.4 hPa Calm   6.1 km/h 99% 0 mm
22:05 8.1 °C 8 °C 1012.8 hPa Calm   6.1 km/h 99% 0 mm
22:07 8.1 °C 7.9 °C 1012.8 hPa Calm   5 km/h 99% 0 mm
22:08 8.1 °C 7.9 °C 1012.8 hPa Calm   5 km/h 99% 0 mm
22:09 8.1 °C 7.9 °C 1012.8 hPa Calm   3.5 km/h 99% 0 mm
22:10 8.1 °C 7.9 °C 1012.8 hPa Calm   3.5 km/h 99% 0 mm
22:11 8.1 °C 7.9 °C 1012.8 hPa Calm   3.5 km/h 99% 0 mm
22:12 7.9 °C 7.8 °C 1012.8 hPa Calm   3.5 km/h 99% 0 mm
22:13 7.9 °C 7.8 °C 1012.8 hPa Calm   3.5 km/h 99% 0 mm
22:14 7.9 °C 7.8 °C 1012.8 hPa West 1.1 km/h 3.5 km/h 99% 0 mm
22:15 7.9 °C 7.8 °C 1012.8 hPa Calm   3.5 km/h 99% 0 mm
22:16 7.8 °C 7.7 °C 1012.8 hPa Calm   3.5 km/h 99% 0 mm
22:18 7.8 °C 7.7 °C 1012.8 hPa Calm   5 km/h 99% 0 mm
22:20 7.8 °C 7.7 °C 1012.8 hPa Calm   5 km/h 99% 0 mm
22:21 7.8 °C 7.7 °C 1012.8 hPa Calm   5 km/h 99% 0 mm
22:23 7.7 °C 7.6 °C 1012.8 hPa Calm   5 km/h 99% 0 mm
22:24 7.7 °C 7.6 °C 1012.8 hPa Calm   5 km/h 99% 0 mm
22:25 7.7 °C 7.6 °C 1012.8 hPa Calm   5 km/h 99% 0 mm
22:26 7.7 °C 7.6 °C 1012.8 hPa Calm   5 km/h 99% 0 mm
22:27 7.7 °C 7.6 °C 1012.8 hPa Calm   5 km/h 99% 0 mm
22:29 7.7 °C 7.6 °C 1012.8 hPa Calm   2.6 km/h 99% 0 mm
22:30 7.7 °C 7.6 °C 1012.8 hPa Calm   2.6 km/h 99% 0 mm
22:31 7.7 °C 7.5 °C 1012.8 hPa Calm   2.6 km/h 99% 0 mm
22:32 7.7 °C 7.5 °C 1012.8 hPa Calm   2.6 km/h 99% 0 mm
22:35 7.6 °C 7.4 °C 1012.8 hPa Calm   2.6 km/h 99% 0 mm
22:37 7.4 °C 7.3 °C 1012.8 hPa Calm   2.6 km/h 99% 0 mm
22:40 7.3 °C 7.2 °C 1013.1 hPa Calm   2.6 km/h 99% 0 mm
22:41 7.3 °C 7.2 °C 1013.1 hPa Calm   2.6 km/h 99% 0 mm
22:42 7.3 °C 7.2 °C 1013.1 hPa Calm   2.6 km/h 99% 0 mm
22:43 7.3 °C 7.1 °C 1013.1 hPa Calm   5 km/h 99% 0 mm
22:45 7.3 °C 7.1 °C 1013.1 hPa WNW 1.1 km/h 6.1 km/h 99% 0 mm
22:46 7.2 °C 7 °C 1013.1 hPa Calm   6.1 km/h 99% 0 mm
22:47 7.2 °C 7 °C 1013.1 hPa West 1.1 km/h 6.1 km/h 99% 0 mm
22:48 7.2 °C 7 °C 1013.1 hPa SW 1.1 km/h 6.1 km/h 99% 0 mm
22:49 7.2 °C 7 °C 1013.1 hPa SW 1.1 km/h 6.1 km/h 99% 0 mm
22:50 7.2 °C 7 °C 1013.1 hPa Calm   6.1 km/h 99% 0 mm
22:51 7.2 °C 7 °C 1013.1 hPa Calm   6.1 km/h 99% 0 mm
22:52 7.2 °C 7 °C 1013.1 hPa SW 1.1 km/h 6.1 km/h 99% 0 mm
22:53 7.1 °C 6.9 °C 1013.1 hPa Calm   6.1 km/h 99% 0 mm
22:54 7.1 °C 6.9 °C 1013.1 hPa Calm   6.1 km/h 99% 0 mm
22:56 7.1 °C 6.9 °C 1012.8 hPa ESE 1.1 km/h 3.5 km/h 99% 0 mm
22:57 7.1 °C 6.9 °C 1013.1 hPa Calm   3.5 km/h 99% 0 mm
22:59 7.1 °C 6.9 °C 1012.8 hPa Calm   3.5 km/h 99% 0 mm
23:00 7.1 °C 6.9 °C 1013.1 hPa ENE 1.1 km/h 3.5 km/h 99% 0 mm
23:01 7.1 °C 6.9 °C 1013.1 hPa ENE 1.1 km/h 6.1 km/h 99% 0 mm
23:02 7.1 °C 6.9 °C 1013.1 hPa SSW 2.6 km/h 6.1 km/h 99% 0 mm
23:03 7.1 °C 6.9 °C 1013.1 hPa West 2.6 km/h 6.1 km/h 99% 0 mm
23:04 7.1 °C 6.9 °C 1013.1 hPa Calm   6.1 km/h 99% 0 mm
23:05 7.1 °C 6.9 °C 1013.1 hPa West 1.1 km/h 6.1 km/h 99% 0 mm
23:06 7.1 °C 6.9 °C 1013.1 hPa West 1.1 km/h 6.1 km/h 99% 0 mm
23:08 7.1 °C 6.9 °C 1013.1 hPa WNW 2.6 km/h 6.1 km/h 99% 0 mm
23:10 7.2 °C 7 °C 1013.1 hPa NW 3.5 km/h 9.7 km/h 99% 0 mm
23:11 7.2 °C 7 °C 1013.1 hPa WNW 1.1 km/h 9.7 km/h 99% 0 mm
23:12 7.2 °C 7 °C 1013.1 hPa Calm   9.7 km/h 99% 0 mm
23:13 7.2 °C 7 °C 1013.1 hPa Calm   9.7 km/h 99% 0 mm
23:15 7.2 °C 7 °C 1013.1 hPa WNW 1.1 km/h 9.7 km/h 99% 0 mm
23:16 7.2 °C 7 °C 1013.1 hPa WNW 2.6 km/h 9.7 km/h 99% 0 mm
23:17 7.1 °C 6.9 °C 1013.1 hPa Calm   9.7 km/h 99% 0 mm
23:19 7.1 °C 6.9 °C 1013.4 hPa Calm   9.7 km/h 99% 0 mm
23:20 7.1 °C 6.9 °C 1013.1 hPa WNW 2.6 km/h 6.1 km/h 99% 0 mm
23:21 7.1 °C 6.9 °C 1013.1 hPa WNW 1.1 km/h 6.1 km/h 99% 0 mm
23:22 7.1 °C 6.9 °C 1013.1 hPa WNW 1.1 km/h 6.1 km/h 99% 0 mm
23:23 7.1 °C 6.9 °C 1013.4 hPa Calm   6.1 km/h 99% 0 mm
23:24 7.1 °C 6.9 °C 1013.1 hPa Calm   6.1 km/h 99% 0 mm
23:26 7.1 °C 6.9 °C 1013.1 hPa Calm   6.1 km/h 99% 0 mm
23:27 7.1 °C 6.9 °C 1013.1 hPa NW 1.1 km/h 6.1 km/h 99% 0 mm
23:29 7.1 °C 6.9 °C 1013.1 hPa Calm   6.1 km/h 99% 0 mm
23:32 6.9 °C 6.8 °C 1013.1 hPa WNW 1.1 km/h 12.2 km/h 99% 0 mm
23:33 7.1 °C 6.9 °C 1013.1 hPa WNW 2.6 km/h 12.2 km/h 99% 0 mm
23:34 7.1 °C 6.9 °C 1013.4 hPa WNW 2.6 km/h 12.2 km/h 99% 0 mm
www.araratweather.com - Email: contact at araratweather.com
Data created with Cumulus & bmak
Click here to send mail.


ABOUT

Live weather data from Ararat, Victoria, Australia, 3377
Data uploaded from Cumulus every 5 minutes to Weather Underground.
This site then downloads the raw data for formatting and display.
Metric and imperial data can be displayed. Graphs and historical data available.
Includes Sun and Moon times and rain image live from BOM.

Check out Ararat Weather on Facebook, Twitter and Google +

Help support ongoing costs by checking out the ads





Follow @AraratWeather